Wetterdaten: Samstag, 12.03.2022
Datum Zeit Temp. Aussen Temp. o. S. Temp +5cm Feuchte Auss Luftdruck Regen Sonnenschein Regendauer Solar Windben Empfang
12.03.2022 00:00 10,1 C 9,4 C 5,6 C 42 % 1015,1 hPa 0,0 l/m 0 min 0 min 0 W/m 19,3 km/h (3 Bft) 100,00 %
12.03.2022 00:02 10,1 C 9,4 C 5,6 C 42 % 1015,1 hPa 0,0 l/m 0 min 0 min 0 W/m 22,5 km/h (4 Bft) 97,50 %
12.03.2022 00:04 10,1 C 9,4 C 5,6 C 42 % 1015,1 hPa 0,0 l/m 0 min 0 min 0 W/m 19,3 km/h (3 Bft) 100,00 %
12.03.2022 00:08 10,1 C 9,4 C 5,6 C 42 % 1015,1 hPa 0,0 l/m 0 min 0 min 0 W/m 22,5 km/h (4 Bft) 98,94 %
12.03.2022 00:10 10,1 C 9,4 C 5,6 C 42 % 1015,1 hPa 0,0 l/m 0 min 0 min 0 W/m 25,7 km/h (4 Bft) 100,00 %
12.03.2022 00:12 10,1 C 9,4 C 5,6 C 42 % 1015,1 hPa 0,0 l/m 0 min 0 min 0 W/m 22,5 km/h (4 Bft) 97,87 %
12.03.2022 00:14 10,1 C 9,4 C 5,6 C 42 % 1015,1 hPa 0,0 l/m 0 min 0 min 0 W/m 25,7 km/h (4 Bft) 97,87 %
12.03.2022 00:16 10,1 C 9,4 C 5,6 C 42 % 1015,1 hPa 0,0 l/m 0 min 0 min 0 W/m 29,0 km/h (5 Bft) 95,65 %
12.03.2022 00:18 10,1 C 9,4 C 5,6 C 42 % 1015,1 hPa 0,0 l/m 0 min 0 min 0 W/m 25,7 km/h (4 Bft) 97,87 %
12.03.2022 00:20 10,1 C 9,4 C 5,6 C 42 % 1015,1 hPa 0,0 l/m 0 min 0 min 0 W/m 25,7 km/h (4 Bft) 95,74 %
12.03.2022 00:22 10,1 C 9,4 C 5,6 C 42 % 1015,1 hPa 0,0 l/m 0 min 0 min 0 W/m 25,7 km/h (4 Bft) 93,62 %
12.03.2022 00:24 10,1 C 9,4 C 5,6 C 42 % 1015,0 hPa 0,0 l/m 0 min 0 min 0 W/m 22,5 km/h (4 Bft) 97,87 %
12.03.2022 00:26 10,1 C 9,4 C 5,6 C 41 % 1015,1 hPa 0,0 l/m 0 min 0 min 0 W/m 35,4 km/h (5 Bft) 97,87 %
12.03.2022 00:28 10,1 C 9,4 C 5,6 C 41 % 1015,1 hPa 0,0 l/m 0 min 0 min 0 W/m 32,2 km/h (5 Bft) 97,83 %
12.03.2022 00:30 10,1 C 9,4 C 5,6 C 41 % 1015,1 hPa 0,0 l/m 0 min 0 min 0 W/m 32,2 km/h (5 Bft) 97,87 %
12.03.2022 00:32 10,1 C 9,4 C 5,6 C 41 % 1015,0 hPa 0,0 l/m 0 min 0 min 0 W/m 29,0 km/h (5 Bft) 97,87 %
12.03.2022 00:34 10,1 C 9,4 C 5,6 C 41 % 1015,1 hPa 0,0 l/m 0 min 0 min 0 W/m 35,4 km/h (5 Bft) 97,87 %
12.03.2022 00:36 10,1 C 9,4 C 5,6 C 41 % 1015,1 hPa 0,0 l/m 0 min 0 min 0 W/m 35,4 km/h (5 Bft) 95,74 %
12.03.2022 00:38 10,1 C 9,4 C 5,6 C 41 % 1015,1 hPa 0,0 l/m 0 min 0 min 0 W/m 25,7 km/h (4 Bft) 97,87 %
12.03.2022 00:40 10,1 C 9,4 C 5,6 C 41 % 1015,1 hPa 0,0 l/m 0 min 0 min 0 W/m 32,2 km/h (5 Bft) 97,83 %
12.03.2022 00:42 10,1 C 9,4 C 5,6 C 41 % 1015,2 hPa 0,0 l/m 0 min 0 min 0 W/m 25,7 km/h (4 Bft) 95,74 %
12.03.2022 00:44 10,1 C 9,4 C 5,6 C 41 % 1015,1 hPa 0,0 l/m 0 min 0 min 0 W/m 25,7 km/h (4 Bft) 97,87 %
12.03.2022 00:46 10,1 C 9,4 C 5,6 C 41 % 1015,2 hPa 0,0 l/m 0 min 0 min 0 W/m 25,7 km/h (4 Bft) 97,87 %
12.03.2022 00:48 10,1 C 9,4 C 5,6 C 41 % 1015,2 hPa 0,0 l/m 0 min 0 min 0 W/m 29,0 km/h (5 Bft) 97,87 %
12.03.2022 00:50 10,1 C 9,4 C 5,6 C 41 % 1015,2 hPa 0,0 l/m 0 min 0 min 0 W/m 29,0 km/h (5 Bft) 97,87 %
12.03.2022 00:52 10,1 C 9,4 C 5,6 C 41 % 1015,3 hPa 0,0 l/m 0 min 0 min 0 W/m 35,4 km/h (5 Bft) 97,83 %
12.03.2022 00:54 10,1 C 9,4 C 5,6 C 41 % 1015,2 hPa 0,0 l/m 0 min 0 min 0 W/m 29,0 km/h (5 Bft) 95,74 %
12.03.2022 00:56 10,1 C 9,4 C 5,6 C 41 % 1015,2 hPa 0,0 l/m 0 min 0 min 0 W/m 25,7 km/h (4 Bft) 97,87 %
12.03.2022 00:58 10,1 C 9,4 C 5,6 C 41 % 1015,2 hPa 0,0 l/m 0 min 0 min 0 W/m 25,7 km/h (4 Bft) 95,74 %
12.03.2022 01:00 10,1 C 9,4 C 5,6 C 41 % 1015,2 hPa 0,0 l/m 0 min 0 min 0 W/m 25,7 km/h (4 Bft) 100,00 %
12.03.2022 01:02 10,1 C 9,4 C 5,6 C 41 % 1015,2 hPa 0,0 l/m 0 min 0 min 0 W/m 32,2 km/h (5 Bft) 97,87 %
12.03.2022 01:04 10,0 C 9,4 C 5,6 C 41 % 1015,3 hPa 0,0 l/m 0 min 0 min 0 W/m 29,0 km/h (5 Bft) 100,00 %
12.03.2022 01:06 10,0 C 9,4 C 5,6 C 41 % 1015,3 hPa 0,0 l/m 0 min 0 min 0 W/m 32,2 km/h (5 Bft) 100,00 %
12.03.2022 01:08 10,0 C 9,4 C 5,6 C 41 % 1015,2 hPa 0,0 l/m 0 min 0 min 0 W/m 22,5 km/h (4 Bft) 97,87 %
12.03.2022 01:10 10,0 C 9,4 C 5,6 C 41 % 1015,2 hPa 0,0 l/m 0 min 0 min 0 W/m 22,5 km/h (4 Bft) 97,87 %
12.03.2022 01:12 9,9 C 9,4 C 5,6 C 41 % 1015,2 hPa 0,0 l/m 0 min 0 min 0 W/m 29,0 km/h (5 Bft) 95,74 %
12.03.2022 01:14 9,9 C 9,4 C 5,6 C 41 % 1015,3 hPa 0,0 l/m 0 min 0 min 0 W/m 25,7 km/h (4 Bft) 97,87 %
12.03.2022 01:16 9,9 C 9,4 C 5,6 C 41 % 1015,3 hPa 0,0 l/m 0 min 0 min 0 W/m 32,2 km/h (5 Bft) 97,83 %
12.03.2022 01:18 9,9 C 9,4 C 5,6 C 41 % 1015,3 hPa 0,0 l/m 0 min 0 min 0 W/m 32,2 km/h (5 Bft) 100,00 %
12.03.2022 01:20 9,9 C 9,4 C 5,6 C 41 % 1015,3 hPa 0,0 l/m 0 min 0 min 0 W/m 25,7 km/h (4 Bft) 97,87 %
12.03.2022 01:22 9,9 C 9,4 C 5,6 C 41 % 1015,3 hPa 0,0 l/m 0 min 0 min 0 W/m 32,2 km/h (5 Bft) 95,74 %
12.03.2022 01:24 9,9 C 8,9 C 5,0 C 41 % 1015,4 hPa 0,0 l/m 0 min 0 min 0 W/m 22,5 km/h (4 Bft) 97,87 %
12.03.2022 01:26 9,9 C 8,9 C 5,0 C 41 % 1015,4 hPa 0,0 l/m 0 min 0 min 0 W/m 32,2 km/h (5 Bft) 97,87 %
12.03.2022 01:28 9,9 C 8,9 C 5,0 C 41 % 1015,4 hPa 0,0 l/m 0 min 0 min 0 W/m 25,7 km/h (4 Bft) 95,65 %
12.03.2022 01:30 9,9 C 8,9 C 5,0 C 41 % 1015,5 hPa 0,0 l/m 0 min 0 min 0 W/m 32,2 km/h (5 Bft) 95,74 %
12.03.2022 01:32 9,8 C 8,9 C 5,0 C 41 % 1015,5 hPa 0,0 l/m 0 min 0 min 0 W/m 22,5 km/h (4 Bft) 95,74 %
12.03.2022 01:34 9,8 C 8,9 C 5,0 C 41 % 1015,4 hPa 0,0 l/m 0 min 0 min 0 W/m 19,3 km/h (3 Bft) 95,74 %
12.03.2022 01:36 9,8 C 8,9 C 5,0 C 41 % 1015,4 hPa 0,0 l/m 0 min 0 min 0 W/m 22,5 km/h (4 Bft) 95,74 %
12.03.2022 01:38 9,8 C 8,9 C 5,0 C 42 % 1015,4 hPa 0,0 l/m 0 min 0 min 0 W/m 22,5 km/h (4 Bft) 93,62 %
12.03.2022 01:40 9,8 C 8,9 C 5,0 C 42 % 1015,4 hPa 0,0 l/m 0 min 0 min 0 W/m 25,7 km/h (4 Bft) 95,65 %
12.03.2022 01:42 9,8 C 8,9 C 5,0 C 41 % 1015,5 hPa 0,0 l/m 0 min 0 min 0 W/m 35,4 km/h (5 Bft) 97,87 %
12.03.2022 01:44 9,8 C 8,9 C 5,0 C 42 % 1015,4 hPa 0,0 l/m 0 min 0 min 0 W/m 19,3 km/h (3 Bft) 97,87 %
12.03.2022 01:46 9,8 C 8,9 C 5,0 C 42 % 1015,4 hPa 0,0 l/m 0 min 0 min 0 W/m 22,5 km/h (4 Bft) 95,74 %
12.03.2022 01:48 9,7 C 8,9 C 5,0 C 42 % 1015,4 hPa 0,0 l/m 0 min 0 min 0 W/m 29,0 km/h (5 Bft) 97,87 %
12.03.2022 01:50 9,7 C 8,9 C 5,0 C 42 % 1015,4 hPa 0,0 l/m 0 min 0 min 0 W/m 19,3 km/h (3 Bft) 97,83 %
12.03.2022 01:52 9,7 C 8,9 C 5,0 C 42 % 1015,4 hPa 0,0 l/m 0 min 0 min 0 W/m 38,6 km/h (5 Bft) 68,09 %
12.03.2022 01:54 9,7 C 8,9 C 5,0 C 42 % 1015,5 hPa 0,0 l/m 0 min 0 min 0 W/m 29,0 km/h (5 Bft) 84,62 %
12.03.2022 01:56 9,7 C 8,9 C 5,0 C 42 % 1015,5 hPa 0,0 l/m 0 min 0 min 0 W/m 19,3 km/h (3 Bft) 93,62 %
12.03.2022 01:58 9,7 C 8,9 C 5,0 C 42 % 1015,5 hPa 0,0 l/m 0 min 0 min 0 W/m 25,7 km/h (4 Bft) 97,87 %
12.03.2022 02:00 9,7 C 8,9 C 5,0 C 42 % 1015,5 hPa 0,0 l/m 0 min 0 min 0 W/m 22,5 km/h (4 Bft) 97,87 %
12.03.2022 02:02 9,7 C 8,9 C 5,0 C 42 % 1015,5 hPa 0,0 l/m 0 min 0 min 0 W/m 22,5 km/h (4 Bft) 97,83 %
12.03.2022 02:04 9,7 C 8,9 C 5,0 C 42 % 1015,5 hPa 0,0 l/m 0 min 0 min 0 W/m 22,5 km/h (4 Bft) 97,87 %
12.03.2022 02:06 9,6 C 8,9 C 5,0 C 42 % 1015,5 hPa 0,0 l/m 0 min 0 min 0 W/m 25,7 km/h (4 Bft) 97,87 %
12.03.2022 02:08 9,6 C 8,9 C 5,0 C 42 % 1015,5 hPa 0,0 l/m 0 min 0 min 0 W/m 22,5 km/h (4 Bft) 97,87 %
12.03.2022 02:10 9,6 C 8,9 C 5,0 C 43 % 1015,5 hPa 0,0 l/m 0 min 0 min 0 W/m 19,3 km/h (3 Bft) 97,87 %
12.03.2022 02:12 9,6 C 8,9 C 5,0 C 43 % 1015,6 hPa 0,0 l/m 0 min 0 min 0 W/m 25,7 km/h (4 Bft) 95,74 %
12.03.2022 02:14 9,6 C 8,3 C 5,0 C 43 % 1015,5 hPa 0,0 l/m 0 min 0 min 0 W/m 22,5 km/h (4 Bft) 95,65 %
12.03.2022 02:16 9,5 C 8,3 C 5,0 C 43 % 1015,6 hPa 0,0 l/m 0 min 0 min 0 W/m 19,3 km/h (3 Bft) 97,87 %
12.03.2022 02:18 9,5 C 8,3 C 5,0 C 43 % 1015,6 hPa 0,0 l/m 0 min 0 min 0 W/m 22,5 km/h (4 Bft) 100,00 %
12.03.2022 02:20 9,4 C 8,3 C 5,0 C 43 % 1015,5 hPa 0,0 l/m 0 min 0 min 0 W/m 16,1 km/h (3 Bft) 100,00 %
12.03.2022 02:22 9,4 C 8,3 C 4,4 C 43 % 1015,5 hPa 0,0 l/m 0 min 0 min 0 W/m 19,3 km/h (3 Bft) 100,00 %
12.03.2022 02:24 9,4 C 8,3 C 4,4 C 43 % 1015,6 hPa 0,0 l/m 0 min 0 min 0 W/m 25,7 km/h (4 Bft) 97,87 %
12.03.2022 02:26 9,3 C 8,3 C 4,4 C 43 % 1015,5 hPa 0,0 l/m 0 min 0 min 0 W/m 19,3 km/h (3 Bft) 97,83 %
12.03.2022 02:28 9,3 C 8,3 C 4,4 C 43 % 1015,6 hPa 0,0 l/m 0 min 0 min 0 W/m 25,7 km/h (4 Bft) 100,00 %
12.03.2022 02:30 9,3 C 8,3 C 4,4 C 43 % 1015,5 hPa 0,0 l/m 0 min 0 min 0 W/m 22,5 km/h (4 Bft) 100,00 %
12.03.2022 02:32 9,3 C 8,3 C 4,4 C 43 % 1015,6 hPa 0,0 l/m 0 min 0 min 0 W/m 19,3 km/h (3 Bft) 97,87 %
12.03.2022 02:34 9,3 C 8,3 C 4,4 C 43 % 1015,6 hPa 0,0 l/m 0 min 0 min 0 W/m 22,5 km/h (4 Bft) 97,87 %
12.03.2022 02:36 9,2 C 8,3 C 4,4 C 43 % 1015,6 hPa 0,0 l/m 0 min 0 min 0 W/m 16,1 km/h (3 Bft) 97,87 %
12.03.2022 02:38 9,2 C 8,3 C 4,4 C 44 % 1015,5 hPa 0,0 l/m 0 min 0 min 0 W/m 19,3 km/h (3 Bft) 100,00 %
12.03.2022 02:40 9,2 C 8,3 C 4,4 C 44 % 1015,5 hPa 0,0 l/m 0 min 0 min 0 W/m 22,5 km/h (4 Bft) 100,00 %
12.03.2022 02:42 9,2 C 8,3 C 4,4 C 43 % 1015,5 hPa 0,0 l/m 0 min 0 min 0 W/m 25,7 km/h (4 Bft) 97,87 %
12.03.2022 02:44 9,2 C 8,3 C 4,4 C 43 % 1015,5 hPa 0,0 l/m 0 min 0 min 0 W/m 29,0 km/h (5 Bft) 100,00 %
12.03.2022 02:46 9,2 C 8,3 C 4,4 C 43 % 1015,6 hPa 0,0 l/m 0 min 0 min 0 W/m 19,3 km/h (3 Bft) 100,00 %
12.03.2022 02:48 9,2 C 8,3 C 4,4 C 44 % 1015,6 hPa 0,0 l/m 0 min 0 min 0 W/m 29,0 km/h (5 Bft) 97,87 %
12.03.2022 02:50 9,2 C 8,3 C 4,4 C 44 % 1015,6 hPa 0,0 l/m 0 min 0 min 0 W/m 22,5 km/h (4 Bft) 97,83 %
12.03.2022 02:52 9,2 C 8,3 C 4,4 C 44 % 1015,6 hPa 0,0 l/m 0 min 0 min 0 W/m 22,5 km/h (4 Bft) 95,74 %
12.03.2022 02:54 9,2 C 8,3 C 4,4 C 44 % 1015,6 hPa 0,0 l/m 0 min 0 min 0 W/m 22,5 km/h (4 Bft) 97,87 %
12.03.2022 02:56 9,2 C 8,3 C 4,4 C 44 % 1015,6 hPa 0,0 l/m 0 min 0 min 0 W/m 25,7 km/h (4 Bft) 95,74 %
12.03.2022 02:58 9,2 C 8,3 C 4,4 C 44 % 1015,6 hPa 0,0 l/m 0 min 0 min 0 W/m 19,3 km/h (3 Bft) 97,87 %
12.03.2022 03:00 9,2 C 8,3 C 4,4 C 44 % 1015,7 hPa 0,0 l/m 0 min 0 min 0 W/m 25,7 km/h (4 Bft) 95,74 %
12.03.2022 03:02 9,2 C 8,3 C 4,4 C 44 % 1015,6 hPa 0,0 l/m 0 min 0 min 0 W/m 22,5 km/h (4 Bft) 95,65 %
12.03.2022 03:04 9,2 C 8,3 C 4,4 C 44 % 1015,6 hPa 0,0 l/m 0 min 0 min 0 W/m 19,3 km/h (3 Bft) 95,83 %
12.03.2022 03:06 9,2 C 8,3 C 4,4 C 44 % 1015,7 hPa 0,0 l/m 0 min 0 min 0 W/m 22,5 km/h (4 Bft) 93,62 %
12.03.2022 03:08 9,2 C 8,3 C 4,4 C 44 % 1015,7 hPa 0,0 l/m 0 min 0 min 0 W/m 19,3 km/h (3 Bft) 95,65 %
12.03.2022 03:10 9,2 C 8,3 C 4,4 C 44 % 1015,6 hPa 0,0 l/m 0 min 0 min 0 W/m 22,5 km/h (4 Bft) 95,74 %
12.03.2022 03:12 9,2 C 8,3 C 4,4 C 44 % 1015,7 hPa 0,0 l/m 0 min 0 min 0 W/m 22,5 km/h (4 Bft) 95,74 %
12.03.2022 03:14 9,2 C 8,3 C 4,4 C 44 % 1015,7 hPa 0,0 l/m 0 min 0 min 0 W/m 16,1 km/h (3 Bft) 95,74 %
12.03.2022 03:16 9,2 C 8,3 C 4,4 C 45 % 1015,7 hPa 0,0 l/m 0 min 0 min 0 W/m 29,0 km/h (5 Bft) 95,74 %
12.03.2022 03:18 9,1 C 8,3 C 4,4 C 45 % 1015,7 hPa 0,0 l/m 0 min 0 min 0 W/m 22,5 km/h (4 Bft) 95,74 %
12.03.2022 03:20 9,1 C 8,3 C 4,4 C 45 % 1015,8 hPa 0,0 l/m 0 min 0 min 0 W/m 29,0 km/h (5 Bft) 95,65 %
12.03.2022 03:22 9,1 C 8,3 C 4,4 C 46 % 1015,8 hPa 0,0 l/m 0 min 0 min 0 W/m 25,7 km/h (4 Bft) 93,62 %
12.03.2022 03:24 9,1 C 8,3 C 4,4 C 46 % 1015,8 hPa 0,0 l/m 0 min 0 min 0 W/m 22,5 km/h (4 Bft) 95,74 %
12.03.2022 03:26 9,1 C 8,3 C 4,4 C 46 % 1015,8 hPa 0,0 l/m 0 min 0 min 0 W/m 19,3 km/h (3 Bft) 95,74 %
12.03.2022 03:28 9,1 C 8,3 C 3,9 C 47 % 1015,8 hPa 0,0 l/m 0 min 2 min 0 W/m 25,7 km/h (4 Bft) 95,74 %
12.03.2022 03:30 9,1 C 8,3 C 3,9 C 47 % 1015,8 hPa 0,0 l/m 0 min 0 min 0 W/m 22,5 km/h (4 Bft) 95,74 %
12.03.2022 03:32 9,1 C 7,8 C 3,3 C 48 % 1015,8 hPa 0,0 l/m 0 min 2 min 0 W/m 22,5 km/h (4 Bft) 95,65 %
12.03.2022 03:34 9,0 C 7,8 C 2,8 C 49 % 1015,8 hPa 0,0 l/m 0 min 2 min 0 W/m 25,7 km/h (4 Bft) 97,87 %
12.03.2022 03:36 8,9 C 7,8 C 2,8 C 50 % 1015,8 hPa 0,0 l/m 0 min 2 min 0 W/m 16,1 km/h (3 Bft) 97,87 %
12.03.2022 03:38 8,9 C 7,8 C 2,8 C 51 % 1015,8 hPa 0,0 l/m 0 min 0 min 0 W/m 19,3 km/h (3 Bft) 100,00 %
12.03.2022 03:40 8,8 C 7,8 C 3,3 C 51 % 1015,8 hPa 0,0 l/m 0 min 0 min 0 W/m 19,3 km/h (3 Bft) 100,00 %
12.03.2022 03:42 8,8 C 7,8 C 3,3 C 51 % 1015,8 hPa 0,0 l/m 0 min 2 min 0 W/m 19,3 km/h (3 Bft) 100,00 %
12.03.2022 03:44 8,7 C 7,8 C 3,3 C 51 % 1015,8 hPa 0,0 l/m 0 min 0 min 0 W/m 25,7 km/h (4 Bft) 100,00 %
12.03.2022 03:46 8,7 C 7,8 C 3,3 C 52 % 1015,8 hPa 0,0 l/m 0 min 0 min 0 W/m 19,3 km/h (3 Bft) 100,00 %
12.03.2022 03:48 8,6 C 7,8 C 3,3 C 53 % 1015,8 hPa 0,0 l/m 0 min 2 min 0 W/m 22,5 km/h (4 Bft) 100,00 %
12.03.2022 03:50 8,6 C 7,8 C 2,8 C 53 % 1015,8 hPa 0,0 l/m 0 min 2 min 0 W/m 25,7 km/h (4 Bft) 100,00 %
12.03.2022 03:52 8,6 C 7,8 C 2,8 C 53 % 1015,8 hPa 0,0 l/m 0 min 0 min 0 W/m 19,3 km/h (3 Bft) 97,87 %
12.03.2022 03:54 8,4 C 7,2 C 3,3 C 54 % 1015,8 hPa 0,0 l/m 0 min 0 min 0 W/m 19,3 km/h (3 Bft) 100,00 %
12.03.2022 03:56 8,4 C 7,2 C 3,3 C 53 % 1015,8 hPa 0,0 l/m 0 min 0 min 0 W/m 25,7 km/h (4 Bft) 100,00 %
12.03.2022 03:58 8,4 C 7,2 C 3,3 C 53 % 1015,8 hPa 0,0 l/m 0 min 0 min 0 W/m 22,5 km/h (4 Bft) 100,00 %
12.03.2022 04:00 8,3 C 7,2 C 3,3 C 53 % 1015,7 hPa 0,0 l/m 0 min 0 min 0 W/m 22,5 km/h (4 Bft) 100,00 %
12.03.2022 04:02 8,3 C 7,2 C 3,3 C 53 % 1015,7 hPa 0,0 l/m 0 min 0 min 0 W/m 9,7 km/h (2 Bft) 100,00 %
12.03.2022 04:04 8,3 C 7,2 C 3,3 C 54 % 1015,7 hPa 0,0 l/m 0 min 0 min 0 W/m 22,5 km/h (4 Bft) 97,87 %
12.03.2022 04:06 8,3 C 7,2 C 3,3 C 54 % 1015,7 hPa 0,0 l/m 0 min 0 min 0 W/m 22,5 km/h (4 Bft) 97,83 %
12.03.2022 04:08 8,2 C 7,2 C 3,3 C 54 % 1015,7 hPa 0,0 l/m 0 min 0 min 0 W/m 12,9 km/h (3 Bft) 100,00 %
12.03.2022 04:10 8,2 C 7,2 C 3,3 C 54 % 1015,7 hPa 0,0 l/m 0 min 0 min 0 W/m 19,3 km/h (3 Bft) 100,00 %
12.03.2022 04:12 8,2 C 7,2 C 3,3 C 54 % 1015,8 hPa 0,0 l/m 0 min 0 min 0 W/m 16,1 km/h (3 Bft) 97,87 %
12.03.2022 04:14 8,2 C 7,2 C 3,3 C 54 % 1015,9 hPa 0,0 l/m 0 min 0 min 0 W/m 16,1 km/h (3 Bft) 97,87 %
12.03.2022 04:16 8,2 C 7,2 C 3,3 C 54 % 1015,9 hPa 0,0 l/m 0 min 0 min 0 W/m 22,5 km/h (4 Bft) 100,00 %
12.03.2022 04:18 8,2 C 7,2 C 3,3 C 53 % 1015,9 hPa 0,0 l/m 0 min 0 min 0 W/m 16,1 km/h (3 Bft) 100,00 %
12.03.2022 04:20 8,2 C 7,2 C 3,9 C 53 % 1015,9 hPa 0,0 l/m 0 min 0 min 0 W/m 25,7 km/h (4 Bft) 100,00 %
12.03.2022 04:22 8,2 C 7,8 C 3,9 C 53 % 1016,0 hPa 0,0 l/m 0 min 0 min 0 W/m 19,3 km/h (3 Bft) 100,00 %
12.03.2022 04:24 8,2 C 7,8 C 3,9 C 52 % 1016,0 hPa 0,0 l/m 0 min 0 min 0 W/m 16,1 km/h (3 Bft) 100,00 %
12.03.2022 04:26 8,2 C 7,8 C 3,9 C 52 % 1015,9 hPa 0,0 l/m 0 min 0 min 0 W/m 16,1 km/h (3 Bft) 100,00 %
12.03.2022 04:28 8,2 C 7,8 C 3,9 C 52 % 1015,9 hPa 0,0 l/m 0 min 0 min 0 W/m 25,7 km/h (4 Bft) 100,00 %
12.03.2022 04:30 8,2 C 7,8 C 3,9 C 52 % 1015,9 hPa 0,0 l/m 0 min 0 min 0 W/m 19,3 km/h (3 Bft) 97,87 %
12.03.2022 04:32 8,2 C 7,8 C 3,9 C 52 % 1015,9 hPa 0,0 l/m 0 min 0 min 0 W/m 19,3 km/h (3 Bft) 95,65 %
12.03.2022 04:34 8,2 C 7,8 C 3,9 C 52 % 1015,9 hPa 0,0 l/m 0 min 0 min 0 W/m 12,9 km/h (3 Bft) 97,87 %
12.03.2022 04:36 8,2 C 7,8 C 3,9 C 52 % 1016,0 hPa 0,0 l/m 0 min 0 min 0 W/m 19,3 km/h (3 Bft) 97,87 %
12.03.2022 04:38 8,2 C 7,8 C 3,9 C 52 % 1016,0 hPa 0,0 l/m 0 min 0 min 0 W/m 16,1 km/h (3 Bft) 95,74 %
12.03.2022 04:40 8,2 C 7,8 C 3,9 C 52 % 1016,0 hPa 0,0 l/m 0 min 0 min 0 W/m 22,5 km/h (4 Bft) 97,87 %
12.03.2022 04:42 8,3 C 7,8 C 3,9 C 52 % 1016,0 hPa 0,0 l/m 0 min 0 min 0 W/m 16,1 km/h (3 Bft) 97,83 %
12.03.2022 04:44 8,2 C 7,8 C 3,9 C 52 % 1016,0 hPa 0,0 l/m 0 min 0 min 0 W/m 19,3 km/h (3 Bft) 97,87 %
12.03.2022 04:46 8,3 C 7,8 C 3,9 C 52 % 1016,0 hPa 0,0 l/m 0 min 0 min 0 W/m 22,5 km/h (4 Bft) 97,87 %
12.03.2022 04:48 8,3 C 7,8 C 3,9 C 52 % 1016,1 hPa 0,0 l/m 0 min 0 min 0 W/m 25,7 km/h (4 Bft) 97,87 %
12.03.2022 04:50 8,3 C 7,8 C 3,9 C 52 % 1016,0 hPa 0,0 l/m 0 min 0 min 0 W/m 22,5 km/h (4 Bft) 95,74 %
12.03.2022 04:52 8,3 C 7,8 C 3,9 C 52 % 1016,1 hPa 0,0 l/m 0 min 0 min 0 W/m 22,5 km/h (4 Bft) 97,87 %
12.03.2022 04:54 8,3 C 7,8 C 3,9 C 52 % 1016,1 hPa 0,0 l/m 0 min 0 min 0 W/m 25,7 km/h (4 Bft) 95,65 %
12.03.2022 04:56 8,3 C 7,8 C 3,9 C 52 % 1016,2 hPa 0,0 l/m 0 min 0 min 0 W/m 25,7 km/h (4 Bft) 95,74 %
12.03.2022 04:58 8,3 C 7,8 C 3,9 C 52 % 1016,3 hPa 0,0 l/m 0 min 0 min 0 W/m 19,3 km/h (3 Bft) 97,87 %
12.03.2022 05:00 8,3 C 7,8 C 3,9 C 52 % 1016,3 hPa 0,0 l/m 0 min 0 min 0 W/m 19,3 km/h (3 Bft) 97,87 %
12.03.2022 05:02 8,3 C 7,8 C 3,9 C 52 % 1016,3 hPa 0,0 l/m 0 min 0 min 0 W/m 19,3 km/h (3 Bft) 95,74 %
12.03.2022 05:04 8,3 C 7,8 C 3,9 C 52 % 1016,2 hPa 0,0 l/m 0 min 0 min 0 W/m 22,5 km/h (4 Bft) 89,36 %
12.03.2022 05:06 8,2 C 7,2 C 3,9 C 52 % 1016,3 hPa 0,0 l/m 0 min 0 min 0 W/m 19,3 km/h (3 Bft) 93,48 %
12.03.2022 05:08 8,2 C 7,2 C 3,9 C 52 % 1016,3 hPa 0,0 l/m 0 min 0 min 0 W/m 19,3 km/h (3 Bft) 93,62 %
12.03.2022 05:10 8,2 C 7,2 C 3,9 C 51 % 1016,3 hPa 0,0 l/m 0 min 0 min 0 W/m 32,2 km/h (5 Bft) 91,49 %
12.03.2022 05:12 8,2 C 7,2 C 3,9 C 51 % 1016,2 hPa 0,0 l/m 0 min 0 min 0 W/m 19,3 km/h (3 Bft) 93,62 %
12.03.2022 05:14 8,2 C 7,2 C 3,9 C 52 % 1016,3 hPa 0,0 l/m 0 min 0 min 0 W/m 19,3 km/h (3 Bft) 95,74 %
12.03.2022 05:16 8,2 C 7,2 C 3,9 C 51 % 1016,3 hPa 0,0 l/m 0 min 0 min 0 W/m 22,5 km/h (4 Bft) 93,62 %
12.03.2022 05:18 8,2 C 7,2 C 3,9 C 51 % 1016,3 hPa 0,0 l/m 0 min 0 min 0 W/m 19,3 km/h (3 Bft) 95,65 %
12.03.2022 05:20 8,2 C 7,2 C 3,9 C 51 % 1016,3 hPa 0,0 l/m 0 min 0 min 0 W/m 16,1 km/h (3 Bft) 93,62 %
12.03.2022 05:22 8,2 C 7,2 C 3,9 C 51 % 1016,4 hPa 0,0 l/m 0 min 0 min 0 W/m 19,3 km/h (3 Bft) 91,49 %
12.03.2022 05:24 8,2 C 7,2 C 3,9 C 51 % 1016,5 hPa 0,0 l/m 0 min 0 min 0 W/m 19,3 km/h (3 Bft) 93,62 %
12.03.2022 05:26 8,2 C 7,2 C 3,9 C 51 % 1016,4 hPa 0,0 l/m 0 min 0 min 0 W/m 25,7 km/h (4 Bft) 95,74 %
12.03.2022 05:28 8,2 C 7,2 C 3,9 C 51 % 1016,4 hPa 0,0 l/m 0 min 0 min 0 W/m 22,5 km/h (4 Bft) 95,74 %
12.03.2022 05:30 8,2 C 7,2 C 3,9 C 51 % 1016,5 hPa 0,0 l/m 0 min 0 min 0 W/m 22,5 km/h (4 Bft) 95,65 %
12.03.2022 05:32 8,2 C 7,2 C 3,9 C 51 % 1016,5 hPa 0,0 l/m 0 min 0 min 0 W/m 19,3 km/h (3 Bft) 95,74 %
12.03.2022 05:34 8,2 C 7,2 C 3,9 C 52 % 1016,5 hPa 0,0 l/m 0 min 0 min 0 W/m 19,3 km/h (3 Bft) 95,74 %
12.03.2022 05:36 8,2 C 7,2 C 3,9 C 51 % 1016,5 hPa 0,0 l/m 0 min 0 min 0 W/m 16,1 km/h (3 Bft) 95,74 %
12.03.2022 05:38 8,2 C 7,2 C 3,9 C 51 % 1016,5 hPa 0,0 l/m 0 min 0 min 0 W/m 22,5 km/h (4 Bft) 97,87 %
12.03.2022 05:40 8,2 C 7,2 C 3,3 C 51 % 1016,5 hPa 0,0 l/m 0 min 0 min 0 W/m 16,1 km/h (3 Bft) 97,83 %
12.03.2022 05:42 8,1 C 7,2 C 3,3 C 51 % 1016,6 hPa 0,0 l/m 0 min 0 min 0 W/m 19,3 km/h (3 Bft) 97,87 %
12.03.2022 05:44 8,1 C 7,2 C 3,3 C 51 % 1016,6 hPa 0,0 l/m 0 min 0 min 0 W/m 16,1 km/h (3 Bft) 97,87 %
12.03.2022 05:46 8,1 C 7,2 C 3,3 C 51 % 1016,6 hPa 0,0 l/m 0 min 0 min 0 W/m 19,3 km/h (3 Bft) 97,87 %
12.03.2022 05:48 8,1 C 7,2 C 3,3 C 51 % 1016,6 hPa 0,0 l/m 0 min 0 min 0 W/m 19,3 km/h (3 Bft) 97,87 %
12.03.2022 05:50 8,1 C 7,2 C 3,3 C 51 % 1016,6 hPa 0,0 l/m 0 min 0 min 0 W/m 22,5 km/h (4 Bft) 97,87 %
12.03.2022 05:52 8,1 C 7,2 C 3,3 C 51 % 1016,6 hPa 0,0 l/m 0 min 0 min 0 W/m 19,3 km/h (3 Bft) 97,83 %
12.03.2022 05:54 8,1 C 7,2 C 3,3 C 51 % 1016,6 hPa 0,0 l/m 0 min 0 min 0 W/m 19,3 km/h (3 Bft) 97,87 %
12.03.2022 05:56 8,0 C 7,2 C 3,3 C 51 % 1016,6 hPa 0,0 l/m 0 min 0 min 0 W/m 19,3 km/h (3 Bft) 97,87 %
12.03.2022 05:58 8,0 C 7,2 C 3,3 C 52 % 1016,6 hPa 0,0 l/m 0 min 0 min 0 W/m 22,5 km/h (4 Bft) 97,87 %
12.03.2022 06:00 7,9 C 7,2 C 3,3 C 52 % 1016,6 hPa 0,0 l/m 0 min 0 min 0 W/m 22,5 km/h (4 Bft) 95,74 %
12.03.2022 06:02 7,9 C 7,2 C 3,3 C 52 % 1016,6 hPa 0,0 l/m 0 min 0 min 0 W/m 16,1 km/h (3 Bft) 100,00 %
12.03.2022 06:04 7,9 C 6,7 C 3,3 C 52 % 1016,7 hPa 0,0 l/m 0 min 0 min 0 W/m 16,1 km/h (3 Bft) 100,00 %
12.03.2022 06:08 7,8 C 6,7 C 3,3 C 52 % 1016,7 hPa 0,0 l/m 0 min 0 min 0 W/m 12,9 km/h (3 Bft) 100,00 %
12.03.2022 06:10 7,8 C 6,7 C 3,3 C 53 % 1016,7 hPa 0,0 l/m 0 min 0 min 0 W/m 22,5 km/h (4 Bft) 100,00 %
12.03.2022 06:12 7,8 C 6,7 C 3,3 C 53 % 1016,7 hPa 0,0 l/m 0 min 0 min 0 W/m 16,1 km/h (3 Bft) 100,00 %
12.03.2022 06:14 7,7 C 6,7 C 2,8 C 52 % 1016,7 hPa 0,0 l/m 0 min 0 min 0 W/m 12,9 km/h (3 Bft) 100,00 %
12.03.2022 06:16 7,7 C 6,7 C 2,8 C 53 % 1016,8 hPa 0,0 l/m 0 min 0 min 0 W/m 19,3 km/h (3 Bft) 100,00 %
12.03.2022 06:18 7,7 C 6,7 C 2,8 C 53 % 1016,7 hPa 0,0 l/m 0 min 0 min 0 W/m 22,5 km/h (4 Bft) 100,00 %
12.03.2022 06:20 7,6 C 6,7 C 2,8 C 53 % 1016,7 hPa 0,0 l/m 0 min 0 min 0 W/m 25,7 km/h (4 Bft) 100,00 %
12.03.2022 06:22 7,6 C 6,7 C 2,8 C 53 % 1016,7 hPa 0,0 l/m 0 min 0 min 0 W/m 16,1 km/h (3 Bft) 100,00 %
12.03.2022 06:24 7,6 C 6,7 C 2,8 C 53 % 1016,7 hPa 0,0 l/m 0 min 0 min 0 W/m 22,5 km/h (4 Bft) 100,00 %
12.03.2022 06:26 7,6 C 6,7 C 2,8 C 53 % 1016,8 hPa 0,0 l/m 0 min 0 min 0 W/m 22,5 km/h (4 Bft) 100,00 %
12.03.2022 06:28 7,5 C 6,7 C 2,8 C 54 % 1016,7 hPa 0,0 l/m 0 min 0 min 0 W/m 12,9 km/h (3 Bft) 97,83 %
12.03.2022 06:30 7,5 C 6,7 C 2,8 C 54 % 1016,8 hPa 0,0 l/m 0 min 0 min 0 W/m 16,1 km/h (3 Bft) 100,00 %
12.03.2022 06:32 7,4 C 6,7 C 2,8 C 54 % 1016,7 hPa 0,0 l/m 0 min 0 min 0 W/m 12,9 km/h (3 Bft) 97,87 %
12.03.2022 06:34 7,4 C 6,1 C 2,8 C 54 % 1016,7 hPa 0,0 l/m 0 min 0 min 0 W/m 19,3 km/h (3 Bft) 100,00 %
12.03.2022 06:36 7,4 C 6,1 C 2,8 C 54 % 1016,8 hPa 0,0 l/m 0 min 0 min 0 W/m 12,9 km/h (3 Bft) 100,00 %
12.03.2022 06:38 7,3 C 6,1 C 2,8 C 54 % 1016,8 hPa 0,0 l/m 0 min 0 min 0 W/m 12,9 km/h (3 Bft) 100,00 %
12.03.2022 06:40 7,3 C 6,1 C 2,8 C 54 % 1016,8 hPa 0,0 l/m 0 min 0 min 0 W/m 12,9 km/h (3 Bft) 100,00 %
12.03.2022 06:42 7,3 C 6,1 C 2,8 C 55 % 1016,8 hPa 0,0 l/m 0 min 0 min 0 W/m 16,1 km/h (3 Bft) 100,00 %
12.03.2022 06:44 7,3 C 6,1 C 2,8 C 55 % 1016,9 hPa 0,0 l/m 0 min 0 min 0 W/m 16,1 km/h (3 Bft) 97,87 %
12.03.2022 06:46 7,2 C 6,1 C 2,8 C 55 % 1016,9 hPa 0,0 l/m 0 min 0 min 0 W/m 12,9 km/h (3 Bft) 100,00 %
12.03.2022 06:48 7,2 C 6,1 C 2,8 C 55 % 1016,8 hPa 0,0 l/m 0 min 0 min 0 W/m 16,1 km/h (3 Bft) 100,00 %
12.03.2022 06:50 7,2 C 6,1 C 2,8 C 55 % 1016,9 hPa 0,0 l/m 0 min 0 min 0 W/m 19,3 km/h (3 Bft) 100,00 %
12.03.2022 06:52 7,1 C 6,1 C 2,8 C 55 % 1016,9 hPa 0,0 l/m 0 min 0 min 0 W/m 19,3 km/h (3 Bft) 100,00 %
12.03.2022 06:54 7,1 C 6,1 C 2,2 C 55 % 1016,9 hPa 0,0 l/m 0 min 0 min 0 W/m 16,1 km/h (3 Bft) 97,87 %
12.03.2022 06:56 7,1 C 6,1 C 2,2 C 55 % 1017,0 hPa 0,0 l/m 0 min 0 min 5 W/m 6,4 km/h (2 Bft) 95,74 %
12.03.2022 06:58 7,1 C 6,1 C 2,2 C 55 % 1017,0 hPa 0,0 l/m 0 min 0 min 8 W/m 12,9 km/h (3 Bft) 97,87 %
12.03.2022 07:00 7,1 C 6,1 C 2,2 C 56 % 1017,0 hPa 0,0 l/m 0 min 0 min 9 W/m 12,9 km/h (3 Bft) 97,87 %
12.03.2022 07:02 7,0 C 6,1 C 2,2 C 56 % 1017,0 hPa 0,0 l/m 0 min 0 min 7 W/m 12,9 km/h (3 Bft) 97,83 %
12.03.2022 07:04 7,0 C 6,1 C 2,2 C 56 % 1017,0 hPa 0,0 l/m 0 min 0 min 9 W/m 19,3 km/h (3 Bft) 97,87 %
12.03.2022 07:06 7,0 C 6,1 C 2,8 C 56 % 1017,0 hPa 0,0 l/m 0 min 0 min 10 W/m 16,1 km/h (3 Bft) 97,87 %
12.03.2022 07:08 7,0 C 6,1 C 2,8 C 56 % 1017,0 hPa 0,0 l/m 0 min 0 min 12 W/m 12,9 km/h (3 Bft) 93,62 %
12.03.2022 07:10 7,0 C 6,1 C 2,8 C 56 % 1017,0 hPa 0,0 l/m 0 min 0 min 13 W/m 12,9 km/h (3 Bft) 97,87 %
12.03.2022 07:12 7,0 C 6,1 C 2,8 C 56 % 1017,0 hPa 0,0 l/m 0 min 0 min 15 W/m 12,9 km/h (3 Bft) 97,87 %
12.03.2022 07:14 7,0 C 6,1 C 2,8 C 56 % 1017,0 hPa 0,0 l/m 0 min 0 min 19 W/m 9,7 km/h (2 Bft) 97,83 %
12.03.2022 07:16 7,0 C 6,1 C 2,8 C 56 % 1017,0 hPa 0,0 l/m 0 min 0 min 20 W/m 12,9 km/h (3 Bft) 97,87 %
12.03.2022 07:18 7,0 C 6,1 C 2,8 C 56 % 1017,0 hPa 0,0 l/m 0 min 0 min 23 W/m 16,1 km/h (3 Bft) 97,87 %
12.03.2022 07:20 7,0 C 6,1 C 2,8 C 56 % 1017,0 hPa 0,0 l/m 0 min 0 min 24 W/m 16,1 km/h (3 Bft) 95,74 %
12.03.2022 07:22 7,1 C 6,7 C 2,8 C 56 % 1017,0 hPa 0,0 l/m 0 min 0 min 26 W/m 12,9 km/h (3 Bft) 97,87 %
12.03.2022 07:24 7,1 C 6,7 C 2,8 C 56 % 1017,0 hPa 0,0 l/m 0 min 0 min 27 W/m 16,1 km/h (3 Bft) 95,74 %
12.03.2022 07:26 7,1 C 6,7 C 2,8 C 56 % 1017,0 hPa 0,0 l/m 0 min 0 min 30 W/m 12,9 km/h (3 Bft) 100,00 %
12.03.2022 07:28 7,1 C 6,7 C 2,8 C 56 % 1017,0 hPa 0,0 l/m 0 min 0 min 32 W/m 16,1 km/h (3 Bft) 100,00 %
12.03.2022 07:30 7,1 C 6,7 C 2,8 C 56 % 1017,0 hPa 0,0 l/m 0 min 0 min 35 W/m 16,1 km/h (3 Bft) 97,87 %
12.03.2022 07:32 7,1 C 6,7 C 2,8 C 57 % 1017,0 hPa 0,0 l/m 0 min 0 min 37 W/m 12,9 km/h (3 Bft) 95,74 %
12.03.2022 07:34 7,1 C 6,7 C 2,8 C 57 % 1017,0 hPa 0,0 l/m 0 min 0 min 40 W/m 16,1 km/h (3 Bft) 97,87 %
12.03.2022 07:36 7,1 C 6,7 C 2,8 C 57 % 1017,1 hPa 0,0 l/m 0 min 0 min 43 W/m 19,3 km/h (3 Bft) 95,74 %
12.03.2022 07:38 7,2 C 6,7 C 2,8 C 57 % 1017,1 hPa 0,0 l/m 0 min 0 min 45 W/m 12,9 km/h (3 Bft) 97,83 %
12.03.2022 07:40 7,2 C 6,7 C 2,8 C 57 % 1017,1 hPa 0,0 l/m 0 min 0 min 48 W/m 12,9 km/h (3 Bft) 97,87 %
12.03.2022 07:42 7,2 C 6,7 C 2,8 C 57 % 1017,2 hPa 0,0 l/m 0 min 0 min 51 W/m 9,7 km/h (2 Bft) 95,74 %
12.03.2022 07:44 7,2 C 6,7 C 2,8 C 58 % 1017,1 hPa 0,0 l/m 0 min 0 min 53 W/m 16,1 km/h (3 Bft) 95,74 %
12.03.2022 07:46 7,2 C 6,7 C 2,8 C 58 % 1017,1 hPa 0,0 l/m 0 min 0 min 53 W/m 22,5 km/h (4 Bft) 95,74 %
12.03.2022 07:48 7,3 C 6,7 C 2,8 C 58 % 1017,1 hPa 0,0 l/m 0 min 0 min 53 W/m 12,9 km/h (3 Bft) 57,45 %
12.03.2022 07:50 7,3 C 6,7 C 2,8 C 58 % 1017,1 hPa 0,0 l/m 0 min 0 min 54 W/m 12,9 km/h (3 Bft) 97,78 %
12.03.2022 07:52 7,3 C 7,2 C 2,8 C 58 % 1017,1 hPa 0,0 l/m 0 min 0 min 57 W/m 6,4 km/h (2 Bft) 93,62 %
12.03.2022 07:54 7,3 C 7,2 C 2,8 C 58 % 1017,2 hPa 0,0 l/m 0 min 0 min 61 W/m 19,3 km/h (3 Bft) 95,74 %
12.03.2022 07:56 7,4 C 7,2 C 3,3 C 58 % 1017,2 hPa 0,0 l/m 0 min 0 min 63 W/m 12,9 km/h (3 Bft) 95,74 %
12.03.2022 07:58 7,4 C 7,2 C 3,3 C 58 % 1017,2 hPa 0,0 l/m 0 min 0 min 67 W/m 6,4 km/h (2 Bft) 95,74 %
12.03.2022 08:00 7,4 C 7,2 C 3,3 C 58 % 1017,2 hPa 0,0 l/m 0 min 0 min 69 W/m 12,9 km/h (3 Bft) 93,62 %
12.03.2022 08:02 7,4 C 7,2 C 3,3 C 58 % 1017,2 hPa 0,0 l/m 0 min 0 min 70 W/m 16,1 km/h (3 Bft) 93,48 %
12.03.2022 08:04 7,5 C 7,2 C 3,3 C 59 % 1017,2 hPa 0,0 l/m 0 min 0 min 72 W/m 16,1 km/h (3 Bft) 95,74 %
12.03.2022 08:06 7,6 C 7,2 C 3,3 C 59 % 1017,1 hPa 0,0 l/m 0 min 0 min 76 W/m 16,1 km/h (3 Bft) 95,74 %
12.03.2022 08:08 7,6 C 7,2 C 3,3 C 59 % 1017,1 hPa 0,0 l/m 0 min 0 min 79 W/m 16,1 km/h (3 Bft) 93,62 %
12.03.2022 08:10 7,6 C 7,2 C 3,3 C 59 % 1017,1 hPa 0,0 l/m 0 min 0 min 83 W/m 16,1 km/h (3 Bft) 95,74 %
12.03.2022 08:12 7,6 C 7,2 C 3,3 C 59 % 1017,2 hPa 0,0 l/m 0 min 0 min 87 W/m 16,1 km/h (3 Bft) 95,74 %
12.03.2022 08:14 7,7 C 7,2 C 3,3 C 59 % 1017,2 hPa 0,0 l/m 0 min 0 min 91 W/m 19,3 km/h (3 Bft) 95,65 %
12.03.2022 08:16 7,7 C 7,8 C 3,3 C 60 % 1017,3 hPa 0,0 l/m 0 min 0 min 95 W/m 19,3 km/h (3 Bft) 95,74 %
12.03.2022 08:18 7,7 C 7,8 C 3,3 C 60 % 1017,3 hPa 0,0 l/m 0 min 0 min 98 W/m 16,1 km/h (3 Bft) 97,87 %
12.03.2022 08:20 7,8 C 7,8 C 3,3 C 60 % 1017,3 hPa 0,0 l/m 0 min 0 min 98 W/m 16,1 km/h (3 Bft) 97,87 %
12.03.2022 08:22 7,8 C 7,8 C 3,9 C 60 % 1017,3 hPa 0,0 l/m 0 min 0 min 100 W/m 16,1 km/h (3 Bft) 95,74 %
12.03.2022 08:24 7,8 C 7,8 C 3,9 C 60 % 1017,3 hPa 0,0 l/m 0 min 0 min 100 W/m 16,1 km/h (3 Bft) 95,74 %
12.03.2022 08:26 7,9 C 7,8 C 3,9 C 60 % 1017,3 hPa 0,0 l/m 0 min 0 min 101 W/m 16,1 km/h (3 Bft) 97,83 %
12.03.2022 08:28 7,9 C 7,8 C 3,9 C 60 % 1017,3 hPa 0,0 l/m 0 min 0 min 103 W/m 16,1 km/h (3 Bft) 97,87 %
12.03.2022 08:30 8,0 C 7,8 C 3,9 C 61 % 1017,3 hPa 0,0 l/m 0 min 0 min 105 W/m 12,9 km/h (3 Bft) 97,87 %
12.03.2022 08:32 8,1 C 7,8 C 3,9 C 61 % 1017,3 hPa 0,0 l/m 0 min 0 min 108 W/m 16,1 km/h (3 Bft) 97,87 %
12.03.2022 08:34 8,1 C 8,3 C 3,9 C 61 % 1017,4 hPa 0,0 l/m 0 min 0 min 110 W/m 16,1 km/h (3 Bft) 95,74 %
12.03.2022 08:36 8,2 C 8,3 C 3,9 C 61 % 1017,4 hPa 0,0 l/m 0 min 0 min 111 W/m 16,1 km/h (3 Bft) 95,74 %
12.03.2022 08:38 8,2 C 8,3 C 3,9 C 61 % 1017,4 hPa 0,0 l/m 0 min 0 min 113 W/m 16,1 km/h (3 Bft) 100,00 %
12.03.2022 08:40 8,2 C 8,3 C 4,4 C 61 % 1017,5 hPa 0,0 l/m 0 min 0 min 117 W/m 16,1 km/h (3 Bft) 97,87 %
12.03.2022 08:42 8,3 C 8,3 C 4,4 C 61 % 1017,5 hPa 0,0 l/m 0 min 0 min 120 W/m 16,1 km/h (3 Bft) 100,00 %
12.03.2022 08:44 8,3 C 8,3 C 4,4 C 61 % 1017,5 hPa 0,0 l/m 0 min 0 min 132 W/m 19,3 km/h (3 Bft) 100,00 %
12.03.2022 08:46 8,4 C 8,3 C 4,4 C 62 % 1017,6 hPa 0,0 l/m 2 min 0 min 139 W/m 16,1 km/h (3 Bft) 100,00 %
12.03.2022 08:48 8,4 C 8,3 C 4,4 C 62 % 1017,6 hPa 0,0 l/m 2 min 0 min 138 W/m 16,1 km/h (3 Bft) 100,00 %
12.03.2022 08:50 8,5 C 8,3 C 4,4 C 62 % 1017,6 hPa 0,0 l/m 2 min 0 min 146 W/m 16,1 km/h (3 Bft) 95,65 %
12.03.2022 08:52 8,6 C 8,9 C 4,4 C 62 % 1017,7 hPa 0,0 l/m 2 min 0 min 153 W/m 12,9 km/h (3 Bft) 97,87 %
12.03.2022 08:54 8,6 C 8,9 C 4,4 C 62 % 1017,6 hPa 0,0 l/m 2 min 0 min 174 W/m 16,1 km/h (3 Bft) 95,74 %
12.03.2022 08:56 8,7 C 9,4 C 4,4 C 63 % 1017,7 hPa 0,0 l/m 2 min 0 min 196 W/m 16,1 km/h (3 Bft) 97,87 %
12.03.2022 08:58 8,8 C 9,4 C 5,0 C 63 % 1017,6 hPa 0,0 l/m 2 min 0 min 209 W/m 16,1 km/h (3 Bft) 97,87 %
12.03.2022 09:00 8,9 C 10,0 C 5,0 C 63 % 1017,7 hPa 0,0 l/m 2 min 0 min 222 W/m 19,3 km/h (3 Bft) 97,83 %
12.03.2022 09:02 8,9 C 10,0 C 5,0 C 63 % 1017,7 hPa 0,0 l/m 2 min 0 min 244 W/m 16,1 km/h (3 Bft) 97,87 %
12.03.2022 09:04 9,1 C 10,6 C 5,0 C 63 % 1017,8 hPa 0,0 l/m 2 min 0 min 312 W/m 16,1 km/h (3 Bft) 97,87 %
12.03.2022 09:06 9,2 C 11,1 C 5,6 C 64 % 1017,8 hPa 0,0 l/m 2 min 0 min 344 W/m 16,1 km/h (3 Bft) 97,87 %
12.03.2022 09:08 9,3 C 11,1 C 5,6 C 63 % 1017,9 hPa 0,0 l/m 2 min 0 min 348 W/m 19,3 km/h (3 Bft) 97,87 %
12.03.2022 09:10 9,5 C 11,1 C 5,6 C 63 % 1017,8 hPa 0,0 l/m 2 min 0 min 314 W/m 22,5 km/h (4 Bft) 97,87 %
12.03.2022 09:12 9,6 C 11,7 C 6,1 C 63 % 1017,8 hPa 0,0 l/m 2 min 0 min 316 W/m 16,1 km/h (3 Bft) 97,87 %
12.03.2022 09:14 9,8 C 11,7 C 6,1 C 63 % 1017,9 hPa 0,0 l/m 2 min 0 min 302 W/m 25,7 km/h (4 Bft) 97,83 %
12.03.2022 09:16 9,9 C 11,1 C 6,1 C 63 % 1017,9 hPa 0,0 l/m 2 min 0 min 273 W/m 22,5 km/h (4 Bft) 95,74 %
12.03.2022 09:18 10,0 C 11,1 C 6,1 C 63 % 1017,9 hPa 0,0 l/m 2 min 0 min 265 W/m 25,7 km/h (4 Bft) 95,74 %
12.03.2022 09:20 10,1 C 11,1 C 6,1 C 64 % 1018,0 hPa 0,0 l/m 2 min 0 min 303 W/m 16,1 km/h (3 Bft) 97,87 %
12.03.2022 09:22 10,2 C 11,1 C 6,1 C 64 % 1018,0 hPa 0,0 l/m 2 min 0 min 342 W/m 16,1 km/h (3 Bft) 97,87 %
12.03.2022 09:24 10,3 C 11,7 C 6,7 C 64 % 1018,0 hPa 0,0 l/m 2 min 0 min 346 W/m 22,5 km/h (4 Bft) 97,83 %
12.03.2022 09:26 10,4 C 11,7 C 6,7 C 63 % 1018,0 hPa 0,0 l/m 2 min 0 min 348 W/m 22,5 km/h (4 Bft) 50,00 %
12.03.2022 09:28 10,5 C 11,1 C 6,7 C 63 % 1018,0 hPa 0,0 l/m 2 min 0 min 328 W/m 29,0 km/h (5 Bft) 100,00 %
12.03.2022 09:30 10,6 C 11,7 C 6,7 C 63 % 1018,0 hPa 0,0 l/m 2 min 0 min 344 W/m 25,7 km/h (4 Bft) 100,00 %
12.03.2022 09:32 10,6 C 11,7 C 6,7 C 63 % 1018,1 hPa 0,0 l/m 2 min 0 min 334 W/m 32,2 km/h (5 Bft) 100,00 %
12.03.2022 09:34 10,7 C 11,7 C 6,7 C 63 % 1018,1 hPa 0,0 l/m 2 min 0 min 333 W/m 19,3 km/h (3 Bft) 97,87 %
12.03.2022 09:36 10,8 C 11,7 C 6,7 C 63 % 1018,1 hPa 0,0 l/m 2 min 0 min 321 W/m 22,5 km/h (4 Bft) 100,00 %
12.03.2022 09:38 10,8 C 11,7 C 7,2 C 63 % 1018,1 hPa 0,0 l/m 2 min 0 min 267 W/m 29,0 km/h (5 Bft) 100,00 %
12.03.2022 09:40 10,9 C 12,2 C 7,2 C 63 % 1018,1 hPa 0,0 l/m 2 min 0 min 256 W/m 19,3 km/h (3 Bft) 100,00 %
12.03.2022 09:42 10,9 C 12,2 C 7,2 C 63 % 1018,2 hPa 0,0 l/m 2 min 0 min 288 W/m 16,1 km/h (3 Bft) 100,00 %
12.03.2022 09:44 11,0 C 12,2 C 7,2 C 63 % 1018,2 hPa 0,0 l/m 2 min 0 min 260 W/m 16,1 km/h (3 Bft) 100,00 %
12.03.2022 09:46 11,1 C 12,2 C 7,2 C 63 % 1018,2 hPa 0,0 l/m 2 min 0 min 278 W/m 16,1 km/h (3 Bft) 100,00 %
12.03.2022 09:48 11,1 C 12,2 C 7,2 C 63 % 1018,3 hPa 0,0 l/m 2 min 0 min 312 W/m 16,1 km/h (3 Bft) 100,00 %
12.03.2022 09:50 11,2 C 12,2 C 7,2 C 64 % 1018,2 hPa 0,0 l/m 2 min 0 min 257 W/m 16,1 km/h (3 Bft) 100,00 %
12.03.2022 09:52 11,2 C 12,2 C 7,2 C 64 % 1018,3 hPa 0,0 l/m 2 min 0 min 249 W/m 16,1 km/h (3 Bft) 100,00 %
12.03.2022 09:54 11,3 C 12,2 C 7,2 C 64 % 1018,3 hPa 0,0 l/m 2 min 0 min 270 W/m 16,1 km/h (3 Bft) 100,00 %
12.03.2022 09:56 11,3 C 12,2 C 7,8 C 64 % 1018,3 hPa 0,0 l/m 2 min 0 min 301 W/m 16,1 km/h (3 Bft) 100,00 %
12.03.2022 09:58 11,4 C 12,8 C 7,8 C 64 % 1018,3 hPa 0,0 l/m 2 min 0 min 363 W/m 12,9 km/h (3 Bft) 100,00 %
12.03.2022 10:00 11,4 C 12,8 C 7,8 C 65 % 1018,3 hPa 0,0 l/m 2 min 0 min 361 W/m 12,9 km/h (3 Bft) 100,00 %
12.03.2022 10:02 11,6 C 13,3 C 8,3 C 65 % 1018,3 hPa 0,0 l/m 2 min 0 min 399 W/m 12,9 km/h (3 Bft) 100,00 %
12.03.2022 10:04 11,7 C 13,3 C 8,9 C 66 % 1018,3 hPa 0,0 l/m 2 min 0 min 344 W/m 19,3 km/h (3 Bft) 97,87 %
12.03.2022 10:06 11,8 C 13,3 C 8,9 C 67 % 1018,3 hPa 0,0 l/m 2 min 0 min 288 W/m 19,3 km/h (3 Bft) 97,87 %
12.03.2022 10:08 11,9 C 13,3 C 8,9 C 67 % 1018,3 hPa 0,0 l/m 2 min 0 min 323 W/m 16,1 km/h (3 Bft) 97,87 %
12.03.2022 10:10 12,0 C 13,3 C 8,9 C 67 % 1018,3 hPa 0,0 l/m 2 min 0 min 320 W/m 19,3 km/h (3 Bft) 97,87 %
12.03.2022 10:12 12,1 C 13,9 C 9,4 C 68 % 1018,4 hPa 0,0 l/m 2 min 0 min 371 W/m 25,7 km/h (4 Bft) 97,83 %
12.03.2022 10:14 12,3 C 13,9 C 10,0 C 69 % 1018,3 hPa 0,0 l/m 2 min 0 min 381 W/m 25,7 km/h (4 Bft) 97,87 %
12.03.2022 10:16 12,4 C 13,9 C 10,0 C 69 % 1018,3 hPa 0,0 l/m 2 min 0 min 381 W/m 22,5 km/h (4 Bft) 97,87 %
12.03.2022 10:18 12,5 C 13,9 C 10,6 C 69 % 1018,3 hPa 0,0 l/m 2 min 0 min 387 W/m 29,0 km/h (5 Bft) 95,74 %
12.03.2022 10:20 12,6 C 13,9 C 10,0 C 69 % 1018,3 hPa 0,0 l/m 2 min 0 min 320 W/m 16,1 km/h (3 Bft) 97,87 %
12.03.2022 10:22 12,6 C 13,3 C 10,0 C 69 % 1018,3 hPa 0,0 l/m 2 min 0 min 280 W/m 32,2 km/h (5 Bft) 97,87 %
12.03.2022 10:24 12,7 C 13,3 C 9,4 C 69 % 1018,3 hPa 0,0 l/m 2 min 0 min 271 W/m 29,0 km/h (5 Bft) 97,83 %
12.03.2022 10:26 12,7 C 13,3 C 9,4 C 69 % 1018,3 hPa 0,0 l/m 2 min 0 min 260 W/m 19,3 km/h (3 Bft) 95,74 %
12.03.2022 10:28 12,7 C 13,3 C 9,4 C 69 % 1018,3 hPa 0,0 l/m 2 min 0 min 282 W/m 19,3 km/h (3 Bft) 97,87 %
12.03.2022 10:30 12,7 C 13,3 C 9,4 C 69 % 1018,3 hPa 0,0 l/m 2 min 0 min 272 W/m 16,1 km/h (3 Bft) 97,87 %
12.03.2022 10:32 12,7 C 12,8 C 8,9 C 69 % 1018,3 hPa 0,0 l/m 2 min 0 min 297 W/m 29,0 km/h (5 Bft) 97,87 %
12.03.2022 10:34 12,7 C 13,3 C 9,4 C 69 % 1018,3 hPa 0,0 l/m 2 min 0 min 350 W/m 22,5 km/h (4 Bft) 97,87 %
12.03.2022 10:36 12,7 C 13,3 C 9,4 C 69 % 1018,3 hPa 0,0 l/m 2 min 0 min 337 W/m 16,1 km/h (3 Bft) 93,48 %
12.03.2022 10:38 12,7 C 13,3 C 9,4 C 69 % 1018,2 hPa 0,0 l/m 2 min 0 min 358 W/m 25,7 km/h (4 Bft) 95,74 %
12.03.2022 10:40 12,7 C 13,9 C 9,4 C 69 % 1018,3 hPa 0,0 l/m 2 min 0 min 386 W/m 25,7 km/h (4 Bft) 95,74 %
12.03.2022 10:42 12,7 C 14,4 C 10,0 C 70 % 1018,3 hPa 0,0 l/m 2 min 0 min 450 W/m 19,3 km/h (3 Bft) 97,87 %
12.03.2022 10:44 12,8 C 15,0 C 11,1 C 70 % 1018,4 hPa 0,0 l/m 2 min 0 min 470 W/m 19,3 km/h (3 Bft) 97,87 %
12.03.2022 10:46 12,9 C 15,0 C 11,1 C 69 % 1018,3 hPa 0,0 l/m 2 min 0 min 467 W/m 22,5 km/h (4 Bft) 97,87 %
12.03.2022 10:48 13,0 C 15,0 C 11,1 C 69 % 1018,3 hPa 0,0 l/m 2 min 0 min 420 W/m 19,3 km/h (3 Bft) 97,83 %
12.03.2022 10:50 13,1 C 15,0 C 11,1 C 69 % 1018,3 hPa 0,0 l/m 2 min 0 min 442 W/m 25,7 km/h (4 Bft) 97,87 %
12.03.2022 10:52 13,1 C 15,0 C 11,1 C 69 % 1018,3 hPa 0,0 l/m 2 min 0 min 453 W/m 29,0 km/h (5 Bft) 97,87 %
12.03.2022 10:54 13,2 C 15,0 C 11,1 C 69 % 1018,3 hPa 0,0 l/m 2 min 0 min 431 W/m 29,0 km/h (5 Bft) 100,00 %
12.03.2022 10:56 13,2 C 15,0 C 11,1 C 68 % 1018,3 hPa 0,0 l/m 2 min 0 min 397 W/m 19,3 km/h (3 Bft) 100,00 %
12.03.2022 10:58 13,3 C 15,0 C 11,1 C 68 % 1018,2 hPa 0,0 l/m 2 min 0 min 390 W/m 12,9 km/h (3 Bft) 100,00 %
12.03.2022 11:00 13,3 C 15,0 C 11,1 C 68 % 1018,3 hPa 0,0 l/m 2 min 0 min 440 W/m 19,3 km/h (3 Bft) 100,00 %
12.03.2022 11:02 13,3 C 15,0 C 11,1 C 68 % 1018,4 hPa 0,0 l/m 2 min 0 min 391 W/m 22,5 km/h (4 Bft) 97,87 %
12.03.2022 11:04 13,3 C 15,0 C 11,1 C 68 % 1018,4 hPa 0,0 l/m 2 min 0 min 392 W/m 22,5 km/h (4 Bft) 97,87 %
12.03.2022 11:06 13,4 C 15,0 C 11,1 C 68 % 1018,4 hPa 0,0 l/m 2 min 0 min 378 W/m 25,7 km/h (4 Bft) 95,74 %
12.03.2022 11:08 13,4 C 15,6 C 11,1 C 68 % 1018,4 hPa 0,0 l/m 2 min 0 min 354 W/m 19,3 km/h (3 Bft) 93,62 %
12.03.2022 11:10 13,4 C 15,0 C 11,1 C 68 % 1018,4 hPa 0,0 l/m 2 min 0 min 304 W/m 22,5 km/h (4 Bft) 97,83 %
12.03.2022 11:12 13,5 C 15,0 C 11,1 C 67 % 1018,4 hPa 0,0 l/m 2 min 0 min 284 W/m 16,1 km/h (3 Bft) 95,74 %
12.03.2022 11:14 13,6 C 15,0 C 11,1 C 67 % 1018,4 hPa 0,0 l/m 2 min 0 min 359 W/m 19,3 km/h (3 Bft) 97,87 %
12.03.2022 11:16 13,6 C 15,0 C 11,1 C 67 % 1018,3 hPa 0,0 l/m 2 min 0 min 299 W/m 25,7 km/h (4 Bft) 97,87 %
12.03.2022 11:18 13,6 C 15,6 C 11,1 C 67 % 1018,3 hPa 0,0 l/m 2 min 0 min 288 W/m 19,3 km/h (3 Bft) 95,74 %
12.03.2022 11:20 13,6 C 16,1 C 12,2 C 67 % 1018,4 hPa 0,0 l/m 2 min 0 min 509 W/m 19,3 km/h (3 Bft) 97,87 %
12.03.2022 11:22 13,7 C 17,2 C 13,3 C 67 % 1018,3 hPa 0,0 l/m 2 min 0 min 548 W/m 16,1 km/h (3 Bft) 95,65 %
12.03.2022 11:24 13,8 C 17,2 C 13,9 C 67 % 1018,3 hPa 0,0 l/m 2 min 0 min 614 W/m 25,7 km/h (4 Bft) 97,87 %
12.03.2022 11:26 13,9 C 17,8 C 14,4 C 66 % 1018,3 hPa 0,0 l/m 2 min 0 min 655 W/m 19,3 km/h (3 Bft) 95,74 %
12.03.2022 11:28 14,1 C 18,3 C 15,0 C 66 % 1018,3 hPa 0,0 l/m 2 min 0 min 691 W/m 22,5 km/h (4 Bft) 95,74 %
12.03.2022 11:30 14,3 C 18,9 C 15,6 C 65 % 1018,2 hPa 0,0 l/m 2 min 0 min 686 W/m 12,9 km/h (3 Bft) 97,87 %
12.03.2022 11:32 14,3 C 19,4 C 15,6 C 65 % 1018,2 hPa 0,0 l/m 2 min 0 min 677 W/m 22,5 km/h (4 Bft) 97,87 %
12.03.2022 11:34 14,4 C 19,4 C 15,6 C 65 % 1018,1 hPa 0,0 l/m 2 min 0 min 642 W/m 19,3 km/h (3 Bft) 97,83 %
12.03.2022 11:36 14,6 C 18,3 C 14,4 C 64 % 1018,1 hPa 0,0 l/m 2 min 0 min 576 W/m 19,3 km/h (3 Bft) 100,00 %
12.03.2022 11:38 14,6 C 18,3 C 14,4 C 63 % 1018,1 hPa 0,0 l/m 2 min 0 min 512 W/m 16,1 km/h (3 Bft) 97,87 %
12.03.2022 11:40 14,6 C 17,8 C 13,9 C 63 % 1018,2 hPa 0,0 l/m 2 min 0 min 504 W/m 22,5 km/h (4 Bft) 95,74 %
12.03.2022 11:42 14,6 C 17,2 C 13,9 C 63 % 1018,2 hPa 0,0 l/m 2 min 0 min 486 W/m 19,3 km/h (3 Bft) 97,87 %
12.03.2022 11:44 14,6 C 17,8 C 13,3 C 63 % 1018,2 hPa 0,0 l/m 2 min 0 min 544 W/m 22,5 km/h (4 Bft) 97,87 %
12.03.2022 11:46 14,6 C 17,8 C 13,3 C 63 % 1018,2 hPa 0,0 l/m 2 min 0 min 567 W/m 19,3 km/h (3 Bft) 97,83 %
12.03.2022 11:48 14,7 C 18,3 C 13,3 C 63 % 1018,2 hPa 0,0 l/m 2 min 0 min 501 W/m 16,1 km/h (3 Bft) 97,87 %
12.03.2022 11:50 14,8 C 17,8 C 13,3 C 63 % 1018,2 hPa 0,0 l/m 2 min 0 min 431 W/m 19,3 km/h (3 Bft) 97,87 %
12.03.2022 11:52 14,8 C 17,2 C 12,8 C 63 % 1018,2 hPa 0,0 l/m 2 min 0 min 431 W/m 16,1 km/h (3 Bft) 97,87 %
12.03.2022 11:54 14,8 C 17,2 C 12,8 C 62 % 1018,2 hPa 0,0 l/m 2 min 0 min 460 W/m 25,7 km/h (4 Bft) 97,87 %
12.03.2022 11:56 14,8 C 17,2 C 12,8 C 63 % 1018,2 hPa 0,0 l/m 2 min 0 min 481 W/m 12,9 km/h (3 Bft) 97,87 %
12.03.2022 11:58 14,8 C 17,2 C 12,8 C 63 % 1018,2 hPa 0,0 l/m 2 min 0 min 499 W/m 16,1 km/h (3 Bft) 97,83 %
12.03.2022 12:00 14,8 C 16,7 C 12,8 C 62 % 1018,3 hPa 0,0 l/m 2 min 0 min 475 W/m 16,1 km/h (3 Bft) 97,87 %
12.03.2022 12:02 14,8 C 16,7 C 12,8 C 62 % 1018,3 hPa 0,0 l/m 2 min 0 min 412 W/m 19,3 km/h (3 Bft) 97,87 %
12.03.2022 12:04 14,8 C 16,1 C 12,8 C 62 % 1018,3 hPa 0,0 l/m 2 min 0 min 368 W/m 16,1 km/h (3 Bft) 97,87 %
12.03.2022 12:08 14,8 C 16,1 C 12,2 C 62 % 1018,3 hPa 0,0 l/m 4 min 0 min 364 W/m 16,1 km/h (3 Bft) 97,87 %
12.03.2022 12:10 14,8 C 16,1 C 12,2 C 62 % 1018,3 hPa 0,0 l/m 2 min 0 min 312 W/m 12,9 km/h (3 Bft) 95,65 %
12.03.2022 12:12 14,8 C 15,6 C 12,2 C 61 % 1018,3 hPa 0,0 l/m 2 min 0 min 295 W/m 19,3 km/h (3 Bft) 97,87 %
12.03.2022 12:14 14,8 C 15,6 C 11,7 C 61 % 1018,3 hPa 0,0 l/m 2 min 0 min 290 W/m 19,3 km/h (3 Bft) 97,87 %
12.03.2022 12:16 14,7 C 15,0 C 11,1 C 61 % 1018,3 hPa 0,0 l/m 0 min 0 min 284 W/m 16,1 km/h (3 Bft) 97,87 %
12.03.2022 12:18 14,7 C 15,0 C 11,1 C 61 % 1018,4 hPa 0,0 l/m 2 min 0 min 289 W/m 16,1 km/h (3 Bft) 97,87 %
12.03.2022 12:20 14,6 C 15,0 C 11,1 C 61 % 1018,3 hPa 0,0 l/m 2 min 0 min 299 W/m 12,9 km/h (3 Bft) 97,87 %
12.03.2022 12:22 14,6 C 15,0 C 11,1 C 61 % 1018,3 hPa 0,0 l/m 2 min 0 min 318 W/m 22,5 km/h (4 Bft) 97,83 %
12.03.2022 12:24 14,5 C 15,0 C 11,1 C 61 % 1018,3 hPa 0,0 l/m 2 min 0 min 327 W/m 25,7 km/h (4 Bft) 97,87 %
12.03.2022 12:26 14,4 C 15,0 C 11,1 C 61 % 1018,3 hPa 0,0 l/m 2 min 0 min 347 W/m 12,9 km/h (3 Bft) 97,87 %
12.03.2022 12:28 14,4 C 15,0 C 11,1 C 61 % 1018,3 hPa 0,0 l/m 2 min 0 min 355 W/m 16,1 km/h (3 Bft) 97,87 %
12.03.2022 12:30 14,4 C 15,6 C 11,1 C 62 % 1018,3 hPa 0,0 l/m 2 min 0 min 382 W/m 12,9 km/h (3 Bft) 97,87 %
12.03.2022 12:32 14,5 C 15,6 C 11,7 C 62 % 1018,3 hPa 0,0 l/m 2 min 0 min 357 W/m 12,9 km/h (3 Bft) 100,00 %
12.03.2022 12:34 14,6 C 15,6 C 11,7 C 62 % 1018,3 hPa 0,0 l/m 2 min 0 min 331 W/m 16,1 km/h (3 Bft) 97,83 %
12.03.2022 12:36 14,6 C 15,6 C 11,1 C 61 % 1018,3 hPa 0,0 l/m 2 min 0 min 359 W/m 19,3 km/h (3 Bft) 97,87 %
12.03.2022 12:38 14,6 C 15,6 C 11,1 C 62 % 1018,3 hPa 0,0 l/m 2 min 0 min 318 W/m 12,9 km/h (3 Bft) 95,74 %
12.03.2022 12:40 14,7 C 15,0 C 11,1 C 62 % 1018,3 hPa 0,0 l/m 2 min 0 min 313 W/m 16,1 km/h (3 Bft) 91,49 %
12.03.2022 12:42 14,7 C 15,0 C 11,1 C 61 % 1018,3 hPa 0,0 l/m 2 min 0 min 321 W/m 16,1 km/h (3 Bft) 93,62 %
12.03.2022 12:44 14,7 C 15,6 C 11,1 C 61 % 1018,3 hPa 0,0 l/m 2 min 0 min 344 W/m 19,3 km/h (3 Bft) 95,65 %
12.03.2022 12:46 14,7 C 15,6 C 11,1 C 61 % 1018,3 hPa 0,0 l/m 2 min 0 min 391 W/m 16,1 km/h (3 Bft) 95,74 %
12.03.2022 12:48 14,7 C 16,1 C 11,1 C 61 % 1018,3 hPa 0,0 l/m 2 min 0 min 450 W/m 19,3 km/h (3 Bft) 95,74 %
12.03.2022 12:50 14,8 C 16,7 C 11,1 C 61 % 1018,3 hPa 0,0 l/m 2 min 0 min 566 W/m 22,5 km/h (4 Bft) 93,62 %
12.03.2022 12:52 14,8 C 17,2 C 11,7 C 60 % 1018,3 hPa 0,0 l/m 2 min 0 min 555 W/m 12,9 km/h (3 Bft) 95,74 %
12.03.2022 12:54 14,9 C 16,7 C 11,7 C 60 % 1018,2 hPa 0,0 l/m 2 min 0 min 515 W/m 19,3 km/h (3 Bft) 91,49 %
12.03.2022 12:56 14,8 C 16,1 C 11,1 C 60 % 1018,2 hPa 0,0 l/m 2 min 0 min 358 W/m 22,5 km/h (4 Bft) 93,48 %
12.03.2022 12:58 14,9 C 16,7 C 11,1 C 61 % 1018,2 hPa 0,0 l/m 2 min 0 min 357 W/m 16,1 km/h (3 Bft) 97,87 %
12.03.2022 13:00 14,9 C 16,1 C 11,1 C 61 % 1018,2 hPa 0,0 l/m 2 min 0 min 328 W/m 16,1 km/h (3 Bft) 97,87 %
12.03.2022 13:02 14,9 C 16,7 C 11,1 C 60 % 1018,2 hPa 0,0 l/m 2 min 0 min 387 W/m 22,5 km/h (4 Bft) 97,87 %
12.03.2022 13:04 15,0 C 17,8 C 11,1 C 60 % 1018,2 hPa 0,0 l/m 2 min 0 min 512 W/m 16,1 km/h (3 Bft) 95,74 %
12.03.2022 13:06 15,1 C 18,9 C 11,7 C 61 % 1018,1 hPa 0,0 l/m 2 min 0 min 693 W/m 12,9 km/h (3 Bft) 95,74 %
12.03.2022 13:08 15,2 C 18,9 C 11,7 C 60 % 1018,2 hPa 0,0 l/m 2 min 0 min 707 W/m 19,3 km/h (3 Bft) 95,65 %
12.03.2022 13:10 15,3 C 18,3 C 11,7 C 60 % 1018,1 hPa 0,0 l/m 2 min 0 min 528 W/m 19,3 km/h (3 Bft) 95,74 %
12.03.2022 13:12 15,3 C 17,8 C 11,7 C 60 % 1018,0 hPa 0,0 l/m 2 min 0 min 396 W/m 19,3 km/h (3 Bft) 95,74 %
12.03.2022 13:14 15,4 C 16,7 C 11,1 C 59 % 1018,0 hPa 0,0 l/m 0 min 0 min 278 W/m 19,3 km/h (3 Bft) 95,74 %
12.03.2022 13:16 15,4 C 16,1 C 11,1 C 59 % 1018,0 hPa 0,0 l/m 0 min 0 min 255 W/m 16,1 km/h (3 Bft) 95,74 %
12.03.2022 13:18 15,3 C 15,6 C 11,1 C 59 % 1018,0 hPa 0,0 l/m 0 min 0 min 244 W/m 12,9 km/h (3 Bft) 95,74 %
12.03.2022 13:20 15,3 C 15,6 C 11,1 C 59 % 1018,0 hPa 0,0 l/m 0 min 0 min 249 W/m 16,1 km/h (3 Bft) 93,48 %
12.03.2022 13:22 15,3 C 15,6 C 11,1 C 59 % 1018,0 hPa 0,0 l/m 2 min 0 min 284 W/m 16,1 km/h (3 Bft) 97,87 %
12.03.2022 13:24 15,2 C 15,6 C 11,1 C 60 % 1018,0 hPa 0,0 l/m 2 min 0 min 292 W/m 19,3 km/h (3 Bft) 93,62 %
12.03.2022 13:26 15,2 C 15,0 C 11,1 C 60 % 1018,0 hPa 0,0 l/m 2 min 0 min 286 W/m 16,1 km/h (3 Bft) 97,87 %
12.03.2022 13:28 15,1 C 15,0 C 11,1 C 60 % 1018,0 hPa 0,0 l/m 2 min 0 min 283 W/m 12,9 km/h (3 Bft) 95,74 %
12.03.2022 13:30 15,1 C 15,0 C 11,1 C 61 % 1018,0 hPa 0,0 l/m 0 min 0 min 277 W/m 16,1 km/h (3 Bft) 97,87 %
12.03.2022 13:32 15,1 C 15,0 C 11,1 C 61 % 1018,1 hPa 0,0 l/m 0 min 0 min 272 W/m 16,1 km/h (3 Bft) 95,65 %
12.03.2022 13:34 15,0 C 15,0 C 11,1 C 61 % 1018,0 hPa 0,0 l/m 0 min 0 min 278 W/m 19,3 km/h (3 Bft) 97,87 %
12.03.2022 13:36 15,0 C 15,0 C 11,1 C 61 % 1018,1 hPa 0,0 l/m 2 min 0 min 289 W/m 16,1 km/h (3 Bft) 97,87 %
12.03.2022 13:38 15,0 C 15,6 C 10,6 C 61 % 1018,0 hPa 0,0 l/m 2 min 0 min 342 W/m 12,9 km/h (3 Bft) 97,87 %
12.03.2022 13:40 15,0 C 16,1 C 11,1 C 61 % 1018,0 hPa 0,0 l/m 2 min 0 min 397 W/m 12,9 km/h (3 Bft) 100,00 %
12.03.2022 13:42 15,1 C 16,7 C 11,1 C 61 % 1018,0 hPa 0,0 l/m 2 min 0 min 442 W/m 19,3 km/h (3 Bft) 100,00 %
12.03.2022 13:44 15,1 C 17,2 C 11,1 C 61 % 1018,0 hPa 0,0 l/m 2 min 0 min 475 W/m 19,3 km/h (3 Bft) 100,00 %
12.03.2022 13:46 15,2 C 17,2 C 11,1 C 61 % 1018,0 hPa 0,0 l/m 2 min 0 min 570 W/m 19,3 km/h (3 Bft) 100,00 %
12.03.2022 13:48 15,2 C 17,8 C 11,1 C 61 % 1018,0 hPa 0,0 l/m 2 min 0 min 567 W/m 19,3 km/h (3 Bft) 100,00 %
12.03.2022 13:50 15,3 C 17,8 C 11,1 C 61 % 1018,0 hPa 0,0 l/m 2 min 0 min 436 W/m 19,3 km/h (3 Bft) 100,00 %
12.03.2022 13:52 15,3 C 18,3 C 11,1 C 61 % 1018,0 hPa 0,0 l/m 2 min 0 min 467 W/m 16,1 km/h (3 Bft) 100,00 %
12.03.2022 13:54 15,4 C 17,8 C 11,1 C 61 % 1018,0 hPa 0,0 l/m 2 min 0 min 405 W/m 22,5 km/h (4 Bft) 100,00 %
12.03.2022 13:56 15,4 C 16,7 C 11,1 C 61 % 1018,0 hPa 0,0 l/m 2 min 0 min 292 W/m 25,7 km/h (4 Bft) 100,00 %
12.03.2022 13:58 15,4 C 16,1 C 11,1 C 60 % 1017,9 hPa 0,0 l/m 0 min 0 min 244 W/m 19,3 km/h (3 Bft) 100,00 %
12.03.2022 14:00 15,3 C 16,1 C 11,1 C 60 % 1017,8 hPa 0,0 l/m 2 min 0 min 277 W/m 29,0 km/h (5 Bft) 100,00 %
12.03.2022 14:02 15,3 C 16,1 C 11,1 C 61 % 1017,8 hPa 0,0 l/m 2 min 0 min 282 W/m 9,7 km/h (2 Bft) 100,00 %
12.03.2022 14:04 15,3 C 16,1 C 11,1 C 61 % 1017,8 hPa 0,0 l/m 2 min 0 min 304 W/m 16,1 km/h (3 Bft) 100,00 %
12.03.2022 14:06 15,3 C 16,1 C 11,1 C 60 % 1017,8 hPa 0,0 l/m 2 min 0 min 300 W/m 16,1 km/h (3 Bft) 100,00 %
12.03.2022 14:08 15,3 C 15,6 C 11,1 C 61 % 1017,9 hPa 0,0 l/m 0 min 0 min 247 W/m 22,5 km/h (4 Bft) 100,00 %
12.03.2022 14:10 15,3 C 15,0 C 11,1 C 60 % 1017,8 hPa 0,0 l/m 0 min 0 min 232 W/m 25,7 km/h (4 Bft) 100,00 %
12.03.2022 14:12 15,2 C 15,0 C 10,6 C 60 % 1017,8 hPa 0,0 l/m 0 min 0 min 223 W/m 16,1 km/h (3 Bft) 100,00 %
12.03.2022 14:14 15,2 C 15,6 C 11,1 C 60 % 1017,8 hPa 0,0 l/m 0 min 0 min 263 W/m 19,3 km/h (3 Bft) 100,00 %
12.03.2022 14:16 15,2 C 15,6 C 10,6 C 60 % 1017,8 hPa 0,0 l/m 2 min 0 min 295 W/m 16,1 km/h (3 Bft) 100,00 %
12.03.2022 14:18 15,1 C 15,0 C 10,6 C 60 % 1017,8 hPa 0,0 l/m 0 min 0 min 239 W/m 25,7 km/h (4 Bft) 100,00 %
12.03.2022 14:20 15,1 C 15,0 C 10,6 C 60 % 1017,7 hPa 0,0 l/m 0 min 0 min 245 W/m 12,9 km/h (3 Bft) 100,00 %
12.03.2022 14:22 15,1 C 15,6 C 10,6 C 61 % 1017,7 hPa 0,0 l/m 0 min 0 min 259 W/m 16,1 km/h (3 Bft) 100,00 %
12.03.2022 14:24 15,1 C 15,6 C 11,1 C 61 % 1017,7 hPa 0,0 l/m 0 min 0 min 251 W/m 12,9 km/h (3 Bft) 97,87 %
12.03.2022 14:26 15,1 C 15,6 C 11,1 C 60 % 1017,7 hPa 0,0 l/m 0 min 0 min 242 W/m 19,3 km/h (3 Bft) 93,62 %
12.03.2022 14:28 15,1 C 15,0 C 11,1 C 60 % 1017,7 hPa 0,0 l/m 0 min 0 min 229 W/m 12,9 km/h (3 Bft) 53,85 %
12.03.2022 14:30 15,1 C 15,6 C 11,1 C 60 % 1017,7 hPa 0,0 l/m 0 min 0 min 210 W/m 6,4 km/h (2 Bft) 100,00 %
12.03.2022 14:32 15,1 C 15,0 C 11,1 C 60 % 1017,7 hPa 0,0 l/m 0 min 0 min 219 W/m 25,7 km/h (4 Bft) 100,00 %
12.03.2022 14:34 15,1 C 15,6 C 11,1 C 61 % 1017,7 hPa 0,0 l/m 2 min 0 min 263 W/m 16,1 km/h (3 Bft) 100,00 %
12.03.2022 14:36 15,1 C 15,6 C 11,1 C 61 % 1017,6 hPa 0,0 l/m 2 min 0 min 316 W/m 16,1 km/h (3 Bft) 100,00 %
12.03.2022 14:38 15,1 C 16,1 C 11,1 C 61 % 1017,5 hPa 0,0 l/m 2 min 0 min 361 W/m 12,9 km/h (3 Bft) 100,00 %
12.03.2022 14:40 15,2 C 16,7 C 11,1 C 61 % 1017,6 hPa 0,0 l/m 2 min 0 min 380 W/m 19,3 km/h (3 Bft) 100,00 %
12.03.2022 14:42 15,2 C 16,7 C 11,1 C 61 % 1017,6 hPa 0,0 l/m 2 min 0 min 396 W/m 19,3 km/h (3 Bft) 100,00 %
12.03.2022 14:44 15,2 C 16,7 C 11,1 C 61 % 1017,5 hPa 0,0 l/m 2 min 0 min 405 W/m 19,3 km/h (3 Bft) 100,00 %
12.03.2022 14:46 15,3 C 16,7 C 11,1 C 61 % 1017,5 hPa 0,0 l/m 2 min 0 min 401 W/m 19,3 km/h (3 Bft) 100,00 %
12.03.2022 14:48 15,3 C 16,7 C 11,1 C 61 % 1017,5 hPa 0,0 l/m 2 min 0 min 341 W/m 22,5 km/h (4 Bft) 100,00 %
12.03.2022 14:50 15,3 C 16,1 C 11,1 C 60 % 1017,5 hPa 0,0 l/m 2 min 0 min 309 W/m 22,5 km/h (4 Bft) 100,00 %
12.03.2022 14:52 15,3 C 16,7 C 11,1 C 61 % 1017,5 hPa 0,0 l/m 2 min 0 min 368 W/m 19,3 km/h (3 Bft) 100,00 %
12.03.2022 14:54 15,3 C 16,1 C 11,1 C 61 % 1017,5 hPa 0,0 l/m 2 min 0 min 357 W/m 22,5 km/h (4 Bft) 100,00 %
12.03.2022 14:56 15,3 C 16,7 C 11,1 C 61 % 1017,4 hPa 0,0 l/m 2 min 0 min 394 W/m 22,5 km/h (4 Bft) 100,00 %
12.03.2022 14:58 15,3 C 16,7 C 11,1 C 61 % 1017,4 hPa 0,0 l/m 2 min 0 min 405 W/m 22,5 km/h (4 Bft) 100,00 %
12.03.2022 15:00 15,3 C 17,2 C 11,1 C 61 % 1017,4 hPa 0,0 l/m 2 min 0 min 437 W/m 22,5 km/h (4 Bft) 100,00 %
12.03.2022 15:02 15,3 C 17,8 C 11,1 C 60 % 1017,4 hPa 0,0 l/m 2 min 0 min 466 W/m 22,5 km/h (4 Bft) 95,65 %
12.03.2022 15:04 15,4 C 17,8 C 11,1 C 60 % 1017,4 hPa 0,0 l/m 2 min 0 min 445 W/m 16,1 km/h (3 Bft) 100,00 %
12.03.2022 15:06 15,4 C 17,8 C 11,1 C 60 % 1017,4 hPa 0,0 l/m 2 min 0 min 419 W/m 16,1 km/h (3 Bft) 93,62 %
12.03.2022 15:08 15,6 C 17,8 C 11,1 C 60 % 1017,5 hPa 0,0 l/m 2 min 0 min 452 W/m 16,1 km/h (3 Bft) 100,00 %
12.03.2022 15:10 15,6 C 17,2 C 11,1 C 60 % 1017,5 hPa 0,0 l/m 2 min 0 min 405 W/m 19,3 km/h (3 Bft) 95,74 %
12.03.2022 15:12 15,6 C 16,7 C 11,1 C 59 % 1017,5 hPa 0,0 l/m 2 min 0 min 283 W/m 16,1 km/h (3 Bft) 97,87 %
12.03.2022 15:14 15,6 C 16,1 C 11,1 C 59 % 1017,4 hPa 0,0 l/m 2 min 0 min 265 W/m 12,9 km/h (3 Bft) 97,83 %
12.03.2022 15:16 15,6 C 16,1 C 11,1 C 59 % 1017,4 hPa 0,0 l/m 2 min 0 min 270 W/m 22,5 km/h (4 Bft) 93,62 %
12.03.2022 15:18 15,6 C 16,1 C 11,1 C 59 % 1017,4 hPa 0,0 l/m 2 min 0 min 327 W/m 25,7 km/h (4 Bft) 95,74 %
12.03.2022 15:20 15,6 C 16,7 C 11,1 C 59 % 1017,5 hPa 0,0 l/m 2 min 0 min 411 W/m 22,5 km/h (4 Bft) 93,62 %
12.03.2022 15:22 15,6 C 16,7 C 11,1 C 59 % 1017,4 hPa 0,0 l/m 2 min 0 min 325 W/m 16,1 km/h (3 Bft) 95,74 %
12.03.2022 15:24 15,6 C 16,7 C 11,1 C 59 % 1017,4 hPa 0,0 l/m 2 min 0 min 287 W/m 22,5 km/h (4 Bft) 93,62 %
12.03.2022 15:26 15,6 C 16,1 C 11,1 C 59 % 1017,4 hPa 0,0 l/m 2 min 0 min 249 W/m 19,3 km/h (3 Bft) 93,48 %
12.03.2022 15:28 15,5 C 15,6 C 11,1 C 59 % 1017,5 hPa 0,0 l/m 2 min 0 min 256 W/m 22,5 km/h (4 Bft) 94,44 %
12.03.2022 15:30 15,5 C 15,6 C 11,1 C 59 % 1017,5 hPa 0,0 l/m 2 min 0 min 276 W/m 16,1 km/h (3 Bft) 91,49 %
12.03.2022 15:32 15,4 C 15,6 C 11,1 C 59 % 1017,4 hPa 0,0 l/m 2 min 0 min 229 W/m 25,7 km/h (4 Bft) 93,48 %
12.03.2022 15:34 15,4 C 15,6 C 11,1 C 59 % 1017,5 hPa 0,0 l/m 0 min 0 min 202 W/m 16,1 km/h (3 Bft) 95,74 %
12.03.2022 15:36 15,4 C 15,0 C 11,1 C 59 % 1017,5 hPa 0,0 l/m 0 min 0 min 187 W/m 12,9 km/h (3 Bft) 93,62 %
12.03.2022 15:38 15,4 C 15,0 C 11,1 C 59 % 1017,4 hPa 0,0 l/m 0 min 0 min 179 W/m 9,7 km/h (2 Bft) 91,49 %
12.03.2022 15:40 15,4 C 15,0 C 10,6 C 59 % 1017,5 hPa 0,0 l/m 0 min 0 min 173 W/m 16,1 km/h (3 Bft) 93,62 %
12.03.2022 15:42 15,4 C 15,0 C 10,6 C 59 % 1017,5 hPa 0,0 l/m 0 min 0 min 187 W/m 12,9 km/h (3 Bft) 93,48 %
12.03.2022 15:44 15,3 C 16,1 C 10,6 C 59 % 1017,5 hPa 0,0 l/m 2 min 0 min 265 W/m 19,3 km/h (3 Bft) 93,62 %
12.03.2022 15:46 15,3 C 16,7 C 11,1 C 59 % 1017,4 hPa 0,0 l/m 2 min 0 min 295 W/m 16,1 km/h (3 Bft) 93,62 %
12.03.2022 15:48 15,3 C 17,2 C 11,1 C 59 % 1017,4 hPa 0,0 l/m 2 min 0 min 370 W/m 22,5 km/h (4 Bft) 91,49 %
12.03.2022 15:50 15,4 C 16,7 C 11,1 C 59 % 1017,4 hPa 0,0 l/m 2 min 0 min 252 W/m 19,3 km/h (3 Bft) 93,62 %
12.03.2022 15:52 15,4 C 15,6 C 10,6 C 58 % 1017,4 hPa 0,0 l/m 0 min 0 min 176 W/m 16,1 km/h (3 Bft) 93,62 %
12.03.2022 15:54 15,4 C 15,6 C 10,6 C 59 % 1017,4 hPa 0,0 l/m 0 min 0 min 148 W/m 16,1 km/h (3 Bft) 95,65 %
12.03.2022 15:56 15,3 C 15,0 C 10,6 C 58 % 1017,3 hPa 0,0 l/m 0 min 0 min 140 W/m 22,5 km/h (4 Bft) 97,87 %
12.03.2022 15:58 15,3 C 15,0 C 10,6 C 58 % 1017,3 hPa 0,0 l/m 0 min 0 min 143 W/m 12,9 km/h (3 Bft) 97,87 %
12.03.2022 16:00 15,3 C 15,0 C 10,6 C 58 % 1017,2 hPa 0,0 l/m 0 min 0 min 136 W/m 16,1 km/h (3 Bft) 95,74 %
12.03.2022 16:02 15,3 C 14,4 C 10,6 C 58 % 1017,3 hPa 0,0 l/m 0 min 0 min 138 W/m 16,1 km/h (3 Bft) 95,74 %
12.03.2022 16:04 15,3 C 15,0 C 10,6 C 58 % 1017,3 hPa 0,0 l/m 0 min 0 min 172 W/m 9,7 km/h (2 Bft) 95,74 %
12.03.2022 16:06 15,2 C 15,6 C 10,6 C 59 % 1017,2 hPa 0,0 l/m 2 min 0 min 191 W/m 29,0 km/h (5 Bft) 97,83 %
12.03.2022 16:08 15,2 C 15,0 C 10,6 C 58 % 1017,2 hPa 0,0 l/m 0 min 0 min 148 W/m 25,7 km/h (4 Bft) 97,87 %
12.03.2022 16:10 15,2 C 15,0 C 10,6 C 58 % 1017,2 hPa 0,0 l/m 0 min 0 min 150 W/m 22,5 km/h (4 Bft) 95,74 %
12.03.2022 16:12 15,1 C 15,0 C 10,6 C 58 % 1017,2 hPa 0,0 l/m 0 min 0 min 153 W/m 19,3 km/h (3 Bft) 95,74 %
12.03.2022 16:14 15,1 C 15,6 C 10,6 C 58 % 1017,2 hPa 0,0 l/m 2 min 0 min 171 W/m 16,1 km/h (3 Bft) 97,87 %
12.03.2022 16:16 15,1 C 15,6 C 10,6 C 59 % 1017,2 hPa 0,0 l/m 2 min 0 min 176 W/m 12,9 km/h (3 Bft) 100,00 %
12.03.2022 16:18 15,1 C 16,1 C 10,6 C 59 % 1017,2 hPa 0,0 l/m 2 min 0 min 253 W/m 12,9 km/h (3 Bft) 100,00 %
12.03.2022 16:20 15,1 C 16,1 C 10,6 C 59 % 1017,2 hPa 0,0 l/m 2 min 0 min 201 W/m 12,9 km/h (3 Bft) 97,87 %
12.03.2022 16:22 15,2 C 15,6 C 10,6 C 59 % 1017,2 hPa 0,0 l/m 0 min 0 min 157 W/m 16,1 km/h (3 Bft) 100,00 %
12.03.2022 16:24 15,2 C 15,6 C 10,6 C 59 % 1017,1 hPa 0,0 l/m 0 min 0 min 135 W/m 12,9 km/h (3 Bft) 100,00 %
12.03.2022 16:26 15,2 C 15,0 C 10,6 C 58 % 1017,1 hPa 0,0 l/m 0 min 0 min 121 W/m 16,1 km/h (3 Bft) 100,00 %
12.03.2022 16:28 15,2 C 15,0 C 10,6 C 58 % 1017,2 hPa 0,0 l/m 0 min 0 min 122 W/m 12,9 km/h (3 Bft) 100,00 %
12.03.2022 16:30 15,2 C 15,0 C 10,6 C 58 % 1017,2 hPa 0,0 l/m 0 min 0 min 117 W/m 16,1 km/h (3 Bft) 100,00 %
12.03.2022 16:32 15,2 C 14,4 C 10,6 C 59 % 1017,1 hPa 0,0 l/m 0 min 0 min 97 W/m 19,3 km/h (3 Bft) 100,00 %
12.03.2022 16:34 15,1 C 14,4 C 10,6 C 59 % 1017,2 hPa 0,0 l/m 0 min 0 min 95 W/m 12,9 km/h (3 Bft) 97,87 %
12.03.2022 16:36 15,1 C 14,4 C 10,0 C 59 % 1017,2 hPa 0,0 l/m 0 min 0 min 99 W/m 16,1 km/h (3 Bft) 100,00 %
12.03.2022 16:38 15,1 C 14,4 C 10,0 C 59 % 1017,2 hPa 0,0 l/m 0 min 0 min 106 W/m 16,1 km/h (3 Bft) 95,74 %
12.03.2022 16:40 15,1 C 14,4 C 10,0 C 59 % 1017,1 hPa 0,0 l/m 0 min 0 min 113 W/m 16,1 km/h (3 Bft) 100,00 %
12.03.2022 16:42 15,0 C 14,4 C 10,0 C 60 % 1017,2 hPa 0,0 l/m 0 min 0 min 116 W/m 19,3 km/h (3 Bft) 100,00 %
12.03.2022 16:44 14,9 C 14,4 C 10,0 C 60 % 1017,1 hPa 0,0 l/m 0 min 0 min 117 W/m 16,1 km/h (3 Bft) 97,87 %
12.03.2022 16:46 14,9 C 14,4 C 10,0 C 60 % 1017,1 hPa 0,0 l/m 0 min 0 min 128 W/m 19,3 km/h (3 Bft) 97,87 %
12.03.2022 16:48 14,9 C 14,4 C 10,0 C 60 % 1017,0 hPa 0,0 l/m 0 min 0 min 114 W/m 22,5 km/h (4 Bft) 100,00 %
12.03.2022 16:50 14,8 C 14,4 C 10,0 C 60 % 1017,1 hPa 0,0 l/m 0 min 0 min 112 W/m 16,1 km/h (3 Bft) 97,87 %
12.03.2022 16:52 14,8 C 14,4 C 10,0 C 60 % 1017,1 hPa 0,0 l/m 0 min 0 min 118 W/m 16,1 km/h (3 Bft) 100,00 %
12.03.2022 16:54 14,8 C 14,4 C 10,0 C 60 % 1017,1 hPa 0,0 l/m 2 min 0 min 123 W/m 16,1 km/h (3 Bft) 97,87 %
12.03.2022 16:56 14,7 C 14,4 C 10,0 C 60 % 1017,0 hPa 0,0 l/m 2 min 0 min 124 W/m 16,1 km/h (3 Bft) 100,00 %
12.03.2022 16:58 14,7 C 14,4 C 10,0 C 60 % 1017,0 hPa 0,0 l/m 2 min 0 min 126 W/m 12,9 km/h (3 Bft) 100,00 %
12.03.2022 17:00 14,7 C 14,4 C 10,0 C 60 % 1017,0 hPa 0,0 l/m 2 min 0 min 128 W/m 16,1 km/h (3 Bft) 100,00 %
12.03.2022 17:02 14,7 C 14,4 C 10,0 C 60 % 1017,0 hPa 0,0 l/m 2 min 0 min 126 W/m 12,9 km/h (3 Bft) 100,00 %
12.03.2022 17:04 14,7 C 14,4 C 10,0 C 60 % 1016,9 hPa 0,0 l/m 2 min 0 min 118 W/m 12,9 km/h (3 Bft) 100,00 %
12.03.2022 17:06 14,7 C 14,4 C 10,0 C 60 % 1016,9 hPa 0,0 l/m 2 min 0 min 111 W/m 12,9 km/h (3 Bft) 97,87 %
12.03.2022 17:08 14,7 C 14,4 C 10,0 C 60 % 1016,9 hPa 0,0 l/m 0 min 0 min 104 W/m 12,9 km/h (3 Bft) 97,87 %
12.03.2022 17:10 14,6 C 13,9 C 10,0 C 60 % 1016,9 hPa 0,0 l/m 0 min 0 min 99 W/m 25,7 km/h (4 Bft) 100,00 %
12.03.2022 17:12 14,6 C 13,9 C 9,4 C 60 % 1016,9 hPa 0,0 l/m 0 min 0 min 95 W/m 19,3 km/h (3 Bft) 97,87 %
12.03.2022 17:14 14,6 C 13,9 C 9,4 C 60 % 1016,9 hPa 0,0 l/m 0 min 0 min 92 W/m 16,1 km/h (3 Bft) 100,00 %
12.03.2022 17:16 14,6 C 13,9 C 9,4 C 61 % 1016,8 hPa 0,0 l/m 0 min 0 min 87 W/m 16,1 km/h (3 Bft) 97,83 %
12.03.2022 17:18 14,5 C 13,9 C 9,4 C 61 % 1016,8 hPa 0,0 l/m 0 min 0 min 83 W/m 16,1 km/h (3 Bft) 97,87 %
12.03.2022 17:20 14,5 C 13,9 C 9,4 C 61 % 1016,8 hPa 0,0 l/m 0 min 0 min 78 W/m 16,1 km/h (3 Bft) 97,87 %
12.03.2022 17:22 14,4 C 13,9 C 9,4 C 61 % 1016,8 hPa 0,0 l/m 0 min 0 min 73 W/m 16,1 km/h (3 Bft) 100,00 %
12.03.2022 17:24 14,4 C 13,3 C 9,4 C 61 % 1016,8 hPa 0,0 l/m 0 min 0 min 67 W/m 19,3 km/h (3 Bft) 100,00 %
12.03.2022 17:26 14,3 C 13,3 C 9,4 C 61 % 1016,8 hPa 0,0 l/m 0 min 0 min 59 W/m 12,9 km/h (3 Bft) 100,00 %
12.03.2022 17:28 14,3 C 13,3 C 9,4 C 61 % 1016,8 hPa 0,0 l/m 0 min 0 min 51 W/m 9,7 km/h (2 Bft) 97,83 %
12.03.2022 17:30 14,3 C 13,3 C 9,4 C 61 % 1016,7 hPa 0,0 l/m 0 min 0 min 46 W/m 12,9 km/h (3 Bft) 97,87 %
12.03.2022 17:32 14,3 C 13,3 C 9,4 C 61 % 1016,9 hPa 0,0 l/m 0 min 0 min 41 W/m 22,5 km/h (4 Bft) 97,87 %
12.03.2022 17:34 14,3 C 13,3 C 9,4 C 61 % 1016,8 hPa 0,0 l/m 0 min 0 min 40 W/m 16,1 km/h (3 Bft) 97,87 %
12.03.2022 17:36 14,3 C 13,3 C 9,4 C 62 % 1016,8 hPa 0,0 l/m 0 min 0 min 38 W/m 19,3 km/h (3 Bft) 95,74 %
12.03.2022 17:38 14,2 C 13,3 C 9,4 C 62 % 1016,8 hPa 0,0 l/m 0 min 0 min 37 W/m 16,1 km/h (3 Bft) 97,87 %
12.03.2022 17:40 14,1 C 13,3 C 9,4 C 62 % 1016,7 hPa 0,0 l/m 0 min 0 min 36 W/m 16,1 km/h (3 Bft) 97,96 %
12.03.2022 17:42 14,1 C 12,8 C 9,4 C 62 % 1016,8 hPa 0,0 l/m 0 min 0 min 35 W/m 22,5 km/h (4 Bft) 97,83 %
12.03.2022 17:44 14,0 C 12,8 C 9,4 C 62 % 1016,8 hPa 0,0 l/m 0 min 0 min 36 W/m 22,5 km/h (4 Bft) 97,87 %
12.03.2022 17:46 14,0 C 12,8 C 9,4 C 62 % 1016,7 hPa 0,0 l/m 0 min 0 min 37 W/m 19,3 km/h (3 Bft) 95,74 %
12.03.2022 17:48 13,9 C 12,8 C 8,9 C 62 % 1016,8 hPa 0,0 l/m 0 min 0 min 37 W/m 16,1 km/h (3 Bft) 95,74 %
12.03.2022 17:50 13,9 C 12,8 C 8,9 C 62 % 1016,8 hPa 0,0 l/m 0 min 0 min 37 W/m 16,1 km/h (3 Bft) 95,74 %
12.03.2022 17:52 13,9 C 12,8 C 8,9 C 62 % 1016,7 hPa 0,0 l/m 0 min 0 min 35 W/m 19,3 km/h (3 Bft) 95,74 %
12.03.2022 17:54 13,8 C 12,8 C 8,9 C 62 % 1016,7 hPa 0,0 l/m 0 min 0 min 35 W/m 12,9 km/h (3 Bft) 95,65 %
12.03.2022 17:56 13,8 C 12,8 C 8,9 C 62 % 1016,7 hPa 0,0 l/m 0 min 0 min 33 W/m 22,5 km/h (4 Bft) 91,49 %
12.03.2022 17:58 13,7 C 12,8 C 8,9 C 62 % 1016,7 hPa 0,0 l/m 0 min 0 min 32 W/m 12,9 km/h (3 Bft) 95,74 %
12.03.2022 18:00 13,7 C 12,8 C 8,9 C 63 % 1016,7 hPa 0,0 l/m 0 min 0 min 31 W/m 16,1 km/h (3 Bft) 97,14 %
12.03.2022 18:02 13,7 C 12,8 C 8,9 C 63 % 1016,7 hPa 0,0 l/m 0 min 0 min 29 W/m 12,9 km/h (3 Bft) 97,87 %
12.03.2022 18:04 13,6 C 12,2 C 8,9 C 63 % 1016,7 hPa 0,0 l/m 0 min 0 min 27 W/m 16,1 km/h (3 Bft) 97,87 %
12.03.2022 18:08 13,5 C 12,2 C 8,3 C 63 % 1016,6 hPa 0,0 l/m 0 min 0 min 24 W/m 16,1 km/h (3 Bft) 96,81 %
12.03.2022 18:10 13,4 C 12,2 C 8,3 C 63 % 1016,7 hPa 0,0 l/m 0 min 0 min 21 W/m 12,9 km/h (3 Bft) 95,65 %
12.03.2022 18:12 13,4 C 12,2 C 8,3 C 63 % 1016,6 hPa 0,0 l/m 0 min 0 min 19 W/m 12,9 km/h (3 Bft) 97,87 %
12.03.2022 18:14 13,4 C 12,2 C 8,3 C 63 % 1016,7 hPa 0,0 l/m 0 min 0 min 17 W/m 6,4 km/h (2 Bft) 93,62 %
12.03.2022 18:16 13,3 C 12,2 C 8,3 C 63 % 1016,6 hPa 0,0 l/m 0 min 0 min 16 W/m 12,9 km/h (3 Bft) 95,74 %
12.03.2022 18:18 13,3 C 12,2 C 8,3 C 63 % 1016,7 hPa 0,0 l/m 0 min 0 min 13 W/m 12,9 km/h (3 Bft) 93,62 %
12.03.2022 18:20 13,2 C 12,2 C 8,3 C 63 % 1016,7 hPa 0,0 l/m 0 min 0 min 12 W/m 16,1 km/h (3 Bft) 95,74 %
12.03.2022 18:22 13,2 C 12,2 C 8,3 C 63 % 1016,6 hPa 0,0 l/m 0 min 0 min 11 W/m 16,1 km/h (3 Bft) 95,65 %
12.03.2022 18:24 13,1 C 12,2 C 8,3 C 64 % 1016,6 hPa 0,0 l/m 0 min 0 min 9 W/m 12,9 km/h (3 Bft) 95,74 %
12.03.2022 18:26 13,1 C 12,2 C 8,3 C 63 % 1016,6 hPa 0,0 l/m 0 min 0 min 7 W/m 16,1 km/h (3 Bft) 95,74 %
12.03.2022 18:28 13,1 C 12,2 C 8,3 C 64 % 1016,6 hPa 0,0 l/m 0 min 0 min 6 W/m 6,4 km/h (2 Bft) 93,62 %
12.03.2022 18:30 13,0 C 11,7 C 8,3 C 64 % 1016,6 hPa 0,0 l/m 0 min 0 min 5 W/m 12,9 km/h (3 Bft) 95,74 %
12.03.2022 18:32 12,9 C 11,7 C 8,3 C 64 % 1016,6 hPa 0,0 l/m 0 min 0 min 3 W/m 16,1 km/h (3 Bft) 95,74 %
12.03.2022 18:34 12,9 C 11,7 C 7,8 C 64 % 1016,6 hPa 0,0 l/m 0 min 0 min 0 W/m 12,9 km/h (3 Bft) 95,65 %
12.03.2022 18:36 12,9 C 11,7 C 7,8 C 64 % 1016,6 hPa 0,0 l/m 0 min 0 min 0 W/m 16,1 km/h (3 Bft) 95,74 %
12.03.2022 18:38 12,8 C 11,7 C 7,8 C 64 % 1016,7 hPa 0,0 l/m 0 min 0 min 0 W/m 12,9 km/h (3 Bft) 97,87 %
12.03.2022 18:40 12,8 C 11,7 C 7,8 C 64 % 1016,7 hPa 0,0 l/m 0 min 0 min 0 W/m 12,9 km/h (3 Bft) 97,87 %
12.03.2022 18:42 12,8 C 11,7 C 7,8 C 64 % 1016,7 hPa 0,0 l/m 0 min 0 min 0 W/m 12,9 km/h (3 Bft) 97,87 %
12.03.2022 18:44 12,7 C 11,7 C 7,8 C 64 % 1016,6 hPa 0,0 l/m 0 min 0 min 0 W/m 6,4 km/h (2 Bft) 95,65 %
12.03.2022 18:46 12,7 C 11,1 C 7,8 C 64 % 1016,7 hPa 0,0 l/m 0 min 0 min 0 W/m 12,9 km/h (3 Bft) 97,87 %
12.03.2022 18:48 12,6 C 11,1 C 7,8 C 64 % 1016,7 hPa 0,0 l/m 0 min 0 min 0 W/m 12,9 km/h (3 Bft) 97,87 %
12.03.2022 18:50 12,6 C 11,1 C 7,8 C 64 % 1016,6 hPa 0,0 l/m 0 min 0 min 0 W/m 12,9 km/h (3 Bft) 95,74 %
12.03.2022 18:52 12,5 C 11,1 C 7,8 C 64 % 1016,7 hPa 0,0 l/m 0 min 0 min 0 W/m 16,1 km/h (3 Bft) 97,87 %
12.03.2022 18:54 12,5 C 11,1 C 7,8 C 65 % 1016,7 hPa 0,0 l/m 0 min 0 min 0 W/m 12,9 km/h (3 Bft) 97,87 %
12.03.2022 18:56 12,4 C 11,1 C 7,8 C 65 % 1016,7 hPa 0,0 l/m 0 min 0 min 0 W/m 6,4 km/h (2 Bft) 100,00 %
12.03.2022 18:58 12,4 C 11,1 C 7,8 C 65 % 1016,7 hPa 0,0 l/m 0 min 0 min 0 W/m 6,4 km/h (2 Bft) 100,00 %
12.03.2022 19:00 12,3 C 11,1 C 7,8 C 65 % 1016,7 hPa 0,0 l/m 0 min 0 min 0 W/m 12,9 km/h (3 Bft) 100,00 %
12.03.2022 19:02 12,3 C 11,1 C 7,2 C 65 % 1016,7 hPa 0,0 l/m 0 min 0 min 0 W/m 6,4 km/h (2 Bft) 100,00 %
12.03.2022 19:04 12,3 C 11,1 C 7,2 C 65 % 1016,8 hPa 0,0 l/m 0 min 0 min 0 W/m 9,7 km/h (2 Bft) 97,87 %
12.03.2022 19:06 12,2 C 11,1 C 7,2 C 65 % 1016,8 hPa 0,0 l/m 0 min 0 min 0 W/m 16,1 km/h (3 Bft) 100,00 %
12.03.2022 19:08 12,2 C 11,1 C 7,2 C 65 % 1016,7 hPa 0,0 l/m 0 min 0 min 0 W/m 16,1 km/h (3 Bft) 100,00 %
12.03.2022 19:10 12,1 C 11,1 C 7,2 C 65 % 1016,8 hPa 0,0 l/m 0 min 0 min 0 W/m 19,3 km/h (3 Bft) 100,00 %
12.03.2022 19:12 12,1 C 11,1 C 7,2 C 65 % 1016,7 hPa 0,0 l/m 0 min 0 min 0 W/m 12,9 km/h (3 Bft) 97,87 %
12.03.2022 19:14 12,1 C 11,1 C 7,2 C 65 % 1016,7 hPa 0,0 l/m 0 min 0 min 0 W/m 12,9 km/h (3 Bft) 100,00 %
12.03.2022 19:16 12,1 C 11,1 C 7,2 C 65 % 1016,7 hPa 0,0 l/m 0 min 0 min 0 W/m 12,9 km/h (3 Bft) 100,00 %
12.03.2022 19:18 12,0 C 11,1 C 7,2 C 65 % 1016,8 hPa 0,0 l/m 0 min 0 min 0 W/m 16,1 km/h (3 Bft) 97,87 %
12.03.2022 19:20 11,9 C 11,1 C 7,2 C 65 % 1016,8 hPa 0,0 l/m 0 min 0 min 0 W/m 16,1 km/h (3 Bft) 100,00 %
12.03.2022 19:22 11,9 C 11,1 C 7,2 C 65 % 1016,8 hPa 0,0 l/m 0 min 0 min 0 W/m 19,3 km/h (3 Bft) 97,87 %
12.03.2022 19:24 11,9 C 11,1 C 7,2 C 65 % 1016,9 hPa 0,0 l/m 0 min 0 min 0 W/m 19,3 km/h (3 Bft) 97,87 %
12.03.2022 19:26 11,8 C 11,1 C 7,2 C 65 % 1016,9 hPa 0,0 l/m 0 min 0 min 0 W/m 16,1 km/h (3 Bft) 95,74 %
12.03.2022 19:28 11,8 C 10,6 C 7,2 C 65 % 1016,8 hPa 0,0 l/m 0 min 0 min 0 W/m 12,9 km/h (3 Bft) 97,87 %
12.03.2022 19:30 11,8 C 10,6 C 7,2 C 65 % 1016,8 hPa 0,0 l/m 0 min 0 min 0 W/m 12,9 km/h (3 Bft) 97,87 %
12.03.2022 19:32 11,8 C 10,6 C 7,2 C 65 % 1016,8 hPa 0,0 l/m 0 min 0 min 0 W/m 16,1 km/h (3 Bft) 97,83 %
12.03.2022 19:34 11,7 C 10,6 C 7,2 C 65 % 1016,8 hPa 0,0 l/m 0 min 0 min 0 W/m 12,9 km/h (3 Bft) 97,87 %
12.03.2022 19:36 11,7 C 10,6 C 7,2 C 65 % 1016,8 hPa 0,0 l/m 0 min 0 min 0 W/m 19,3 km/h (3 Bft) 93,62 %
12.03.2022 19:38 11,7 C 10,6 C 7,2 C 65 % 1016,8 hPa 0,0 l/m 0 min 0 min 0 W/m 16,1 km/h (3 Bft) 97,87 %
12.03.2022 19:40 11,6 C 10,6 C 7,2 C 65 % 1016,8 hPa 0,0 l/m 0 min 0 min 0 W/m 16,1 km/h (3 Bft) 97,87 %
12.03.2022 19:42 11,6 C 10,6 C 7,2 C 65 % 1016,9 hPa 0,0 l/m 0 min 0 min 0 W/m 16,1 km/h (3 Bft) 95,74 %
12.03.2022 19:44 11,6 C 10,6 C 6,7 C 65 % 1016,8 hPa 0,0 l/m 0 min 0 min 0 W/m 16,1 km/h (3 Bft) 97,83 %
12.03.2022 19:46 11,6 C 10,6 C 6,7 C 65 % 1016,9 hPa 0,0 l/m 0 min 0 min 0 W/m 12,9 km/h (3 Bft) 95,74 %
12.03.2022 19:48 11,5 C 10,6 C 6,7 C 65 % 1016,9 hPa 0,0 l/m 0 min 0 min 0 W/m 16,1 km/h (3 Bft) 97,87 %
12.03.2022 19:50 11,4 C 10,6 C 6,7 C 65 % 1016,8 hPa 0,0 l/m 0 min 0 min 0 W/m 16,1 km/h (3 Bft) 97,87 %
12.03.2022 19:52 11,4 C 10,6 C 6,7 C 65 % 1016,8 hPa 0,0 l/m 0 min 0 min 0 W/m 19,3 km/h (3 Bft) 97,87 %
12.03.2022 19:54 11,4 C 10,6 C 6,7 C 66 % 1016,8 hPa 0,0 l/m 0 min 0 min 0 W/m 16,1 km/h (3 Bft) 100,00 %
12.03.2022 19:56 11,3 C 10,0 C 6,7 C 66 % 1016,8 hPa 0,0 l/m 0 min 0 min 0 W/m 19,3 km/h (3 Bft) 100,00 %
12.03.2022 19:58 11,3 C 10,0 C 6,7 C 66 % 1016,8 hPa 0,0 l/m 0 min 0 min 0 W/m 12,9 km/h (3 Bft) 100,00 %
12.03.2022 20:00 11,3 C 10,0 C 6,7 C 66 % 1016,8 hPa 0,0 l/m 0 min 0 min 0 W/m 16,1 km/h (3 Bft) 100,00 %
12.03.2022 20:02 11,3 C 10,0 C 6,7 C 66 % 1016,8 hPa 0,0 l/m 0 min 0 min 0 W/m 16,1 km/h (3 Bft) 100,00 %
12.03.2022 20:04 11,2 C 10,0 C 6,7 C 66 % 1016,8 hPa 0,0 l/m 0 min 0 min 0 W/m 16,1 km/h (3 Bft) 100,00 %
12.03.2022 20:06 11,2 C 10,0 C 6,7 C 66 % 1016,8 hPa 0,0 l/m 0 min 0 min 0 W/m 12,9 km/h (3 Bft) 97,87 %
12.03.2022 20:08 11,2 C 10,0 C 6,7 C 66 % 1016,8 hPa 0,0 l/m 0 min 0 min 0 W/m 19,3 km/h (3 Bft) 97,83 %
12.03.2022 20:10 11,1 C 10,0 C 6,7 C 66 % 1016,8 hPa 0,0 l/m 0 min 0 min 0 W/m 19,3 km/h (3 Bft) 100,00 %
12.03.2022 20:12 11,1 C 10,0 C 6,7 C 66 % 1016,8 hPa 0,0 l/m 0 min 0 min 0 W/m 12,9 km/h (3 Bft) 100,00 %
12.03.2022 20:14 11,1 C 10,0 C 6,7 C 66 % 1016,8 hPa 0,0 l/m 0 min 0 min 0 W/m 16,1 km/h (3 Bft) 100,00 %
12.03.2022 20:16 11,1 C 10,0 C 6,1 C 66 % 1016,8 hPa 0,0 l/m 0 min 0 min 0 W/m 0,0 km/h (0 Bft) 100,00 %
12.03.2022 20:18 11,0 C 10,0 C 6,1 C 67 % 1016,8 hPa 0,0 l/m 0 min 0 min 0 W/m 16,1 km/h (3 Bft) 100,00 %
12.03.2022 20:20 10,9 C 10,0 C 6,1 C 67 % 1016,8 hPa 0,0 l/m 0 min 0 min 0 W/m 12,9 km/h (3 Bft) 100,00 %
12.03.2022 20:22 10,9 C 10,0 C 6,1 C 67 % 1016,9 hPa 0,0 l/m 0 min 0 min 0 W/m 12,9 km/h (3 Bft) 100,00 %
12.03.2022 20:24 10,9 C 10,0 C 6,1 C 67 % 1016,9 hPa 0,0 l/m 0 min 0 min 0 W/m 16,1 km/h (3 Bft) 97,87 %
12.03.2022 20:26 10,8 C 10,0 C 6,1 C 67 % 1016,8 hPa 0,0 l/m 0 min 0 min 0 W/m 19,3 km/h (3 Bft) 100,00 %
12.03.2022 20:28 10,8 C 10,0 C 6,1 C 67 % 1016,8 hPa 0,0 l/m 0 min 0 min 0 W/m 12,9 km/h (3 Bft) 100,00 %
12.03.2022 20:30 10,8 C 10,0 C 6,1 C 67 % 1016,8 hPa 0,0 l/m 0 min 0 min 0 W/m 16,1 km/h (3 Bft) 100,00 %
12.03.2022 20:32 10,8 C 10,0 C 6,1 C 67 % 1016,8 hPa 0,0 l/m 0 min 0 min 0 W/m 16,1 km/h (3 Bft) 100,00 %
12.03.2022 20:34 10,7 C 10,0 C 6,1 C 67 % 1016,9 hPa 0,0 l/m 0 min 0 min 0 W/m 16,1 km/h (3 Bft) 97,87 %
12.03.2022 20:36 10,7 C 10,0 C 6,1 C 67 % 1016,9 hPa 0,0 l/m 0 min 0 min 0 W/m 12,9 km/h (3 Bft) 100,00 %
12.03.2022 20:38 10,7 C 9,4 C 6,1 C 67 % 1016,9 hPa 0,0 l/m 0 min 0 min 0 W/m 12,9 km/h (3 Bft) 97,87 %
12.03.2022 20:40 10,7 C 9,4 C 6,1 C 67 % 1016,9 hPa 0,0 l/m 0 min 0 min 0 W/m 6,4 km/h (2 Bft) 97,87 %
12.03.2022 20:42 10,7 C 9,4 C 6,1 C 67 % 1016,9 hPa 0,0 l/m 0 min 0 min 0 W/m 6,4 km/h (2 Bft) 97,87 %
12.03.2022 20:44 10,6 C 9,4 C 6,1 C 67 % 1016,9 hPa 0,0 l/m 0 min 0 min 0 W/m 12,9 km/h (3 Bft) 97,83 %
12.03.2022 20:46 10,6 C 9,4 C 6,1 C 68 % 1016,9 hPa 0,0 l/m 0 min 0 min 0 W/m 19,3 km/h (3 Bft) 97,87 %
12.03.2022 20:48 10,6 C 9,4 C 6,1 C 68 % 1016,9 hPa 0,0 l/m 0 min 0 min 0 W/m 12,9 km/h (3 Bft) 93,62 %
12.03.2022 20:50 10,5 C 9,4 C 6,1 C 68 % 1016,9 hPa 0,0 l/m 0 min 0 min 0 W/m 16,1 km/h (3 Bft) 95,74 %
12.03.2022 20:52 10,5 C 9,4 C 6,1 C 68 % 1016,9 hPa 0,0 l/m 0 min 0 min 0 W/m 12,9 km/h (3 Bft) 95,74 %
12.03.2022 20:54 10,5 C 9,4 C 6,1 C 68 % 1016,8 hPa 0,0 l/m 0 min 0 min 0 W/m 6,4 km/h (2 Bft) 95,65 %
12.03.2022 20:56 10,4 C 9,4 C 6,1 C 68 % 1016,8 hPa 0,0 l/m 0 min 0 min 0 W/m 9,7 km/h (2 Bft) 95,74 %
12.03.2022 20:58 10,4 C 9,4 C 6,1 C 68 % 1016,8 hPa 0,0 l/m 0 min 0 min 0 W/m 19,3 km/h (3 Bft) 95,74 %
12.03.2022 21:00 10,4 C 9,4 C 6,1 C 68 % 1016,8 hPa 0,0 l/m 0 min 0 min 0 W/m 12,9 km/h (3 Bft) 95,74 %
12.03.2022 21:02 10,4 C 9,4 C 5,6 C 68 % 1016,8 hPa 0,0 l/m 0 min 0 min 0 W/m 16,1 km/h (3 Bft) 95,74 %
12.03.2022 21:04 10,3 C 9,4 C 5,6 C 68 % 1016,8 hPa 0,0 l/m 0 min 0 min 0 W/m 16,1 km/h (3 Bft) 89,36 %
12.03.2022 21:06 10,3 C 9,4 C 5,6 C 68 % 1016,8 hPa 0,0 l/m 0 min 0 min 0 W/m 19,3 km/h (3 Bft) 95,65 %
12.03.2022 21:08 10,3 C 9,4 C 6,1 C 68 % 1016,8 hPa 0,0 l/m 0 min 0 min 0 W/m 19,3 km/h (3 Bft) 95,74 %
12.03.2022 21:10 10,3 C 9,4 C 6,1 C 68 % 1016,8 hPa 0,0 l/m 0 min 0 min 0 W/m 22,5 km/h (4 Bft) 95,74 %
12.03.2022 21:12 10,3 C 9,4 C 6,1 C 68 % 1016,8 hPa 0,0 l/m 0 min 0 min 0 W/m 19,3 km/h (3 Bft) 95,74 %
12.03.2022 21:14 10,3 C 9,4 C 6,1 C 68 % 1016,9 hPa 0,0 l/m 0 min 0 min 0 W/m 19,3 km/h (3 Bft) 93,62 %
12.03.2022 21:16 10,3 C 9,4 C 6,1 C 68 % 1016,8 hPa 0,0 l/m 0 min 0 min 0 W/m 22,5 km/h (4 Bft) 93,62 %
12.03.2022 21:18 10,3 C 9,4 C 6,1 C 68 % 1016,8 hPa 0,0 l/m 0 min 0 min 0 W/m 16,1 km/h (3 Bft) 93,48 %
12.03.2022 21:20 10,3 C 9,4 C 6,1 C 68 % 1016,8 hPa 0,0 l/m 0 min 0 min 0 W/m 16,1 km/h (3 Bft) 91,49 %
12.03.2022 21:22 10,3 C 9,4 C 6,1 C 68 % 1016,9 hPa 0,0 l/m 0 min 0 min 0 W/m 19,3 km/h (3 Bft) 95,74 %
12.03.2022 21:24 10,3 C 9,4 C 6,1 C 68 % 1016,9 hPa 0,0 l/m 0 min 0 min 0 W/m 19,3 km/h (3 Bft) 95,74 %
12.03.2022 21:26 10,3 C 9,4 C 6,1 C 67 % 1016,9 hPa 0,0 l/m 0 min 0 min 0 W/m 22,5 km/h (4 Bft) 97,87 %
12.03.2022 21:28 10,3 C 9,4 C 6,1 C 67 % 1016,9 hPa 0,0 l/m 0 min 0 min 0 W/m 12,9 km/h (3 Bft) 95,74 %
12.03.2022 21:30 10,3 C 9,4 C 6,1 C 67 % 1016,9 hPa 0,0 l/m 0 min 0 min 0 W/m 22,5 km/h (4 Bft) 95,65 %
12.03.2022 21:32 10,3 C 9,4 C 6,1 C 67 % 1016,9 hPa 0,0 l/m 0 min 0 min 0 W/m 19,3 km/h (3 Bft) 95,74 %
12.03.2022 21:34 10,3 C 9,4 C 6,1 C 67 % 1016,9 hPa 0,0 l/m 0 min 0 min 0 W/m 19,3 km/h (3 Bft) 95,74 %
12.03.2022 21:36 10,3 C 9,4 C 6,1 C 67 % 1016,9 hPa 0,0 l/m 0 min 0 min 0 W/m 22,5 km/h (4 Bft) 95,74 %
12.03.2022 21:38 10,3 C 9,4 C 6,1 C 66 % 1016,9 hPa 0,0 l/m 0 min 0 min 0 W/m 16,1 km/h (3 Bft) 93,62 %
12.03.2022 21:40 10,4 C 9,4 C 6,1 C 66 % 1017,0 hPa 0,0 l/m 0 min 0 min 0 W/m 19,3 km/h (3 Bft) 97,87 %
12.03.2022 21:42 10,4 C 10,0 C 6,1 C 66 % 1017,0 hPa 0,0 l/m 0 min 0 min 0 W/m 19,3 km/h (3 Bft) 91,30 %
12.03.2022 21:44 10,4 C 10,0 C 6,1 C 66 % 1017,0 hPa 0,0 l/m 0 min 0 min 0 W/m 22,5 km/h (4 Bft) 100,00 %
12.03.2022 21:46 10,4 C 10,0 C 6,1 C 65 % 1017,1 hPa 0,0 l/m 0 min 0 min 0 W/m 19,3 km/h (3 Bft) 97,87 %
12.03.2022 21:48 10,4 C 10,0 C 6,1 C 65 % 1017,0 hPa 0,0 l/m 0 min 0 min 0 W/m 22,5 km/h (4 Bft) 100,00 %
12.03.2022 21:50 10,4 C 10,0 C 6,1 C 65 % 1017,0 hPa 0,0 l/m 0 min 0 min 0 W/m 19,3 km/h (3 Bft) 100,00 %
12.03.2022 21:52 10,5 C 10,0 C 6,1 C 65 % 1017,0 hPa 0,0 l/m 0 min 0 min 0 W/m 16,1 km/h (3 Bft) 97,87 %
12.03.2022 21:54 10,5 C 10,0 C 6,1 C 65 % 1017,1 hPa 0,0 l/m 0 min 0 min 0 W/m 19,3 km/h (3 Bft) 100,00 %
12.03.2022 21:56 10,5 C 10,0 C 6,1 C 64 % 1017,0 hPa 0,0 l/m 0 min 0 min 0 W/m 16,1 km/h (3 Bft) 95,74 %
12.03.2022 21:58 10,5 C 10,0 C 6,1 C 64 % 1017,0 hPa 0,0 l/m 0 min 0 min 0 W/m 22,5 km/h (4 Bft) 100,00 %
12.03.2022 22:00 10,5 C 10,0 C 6,1 C 64 % 1017,1 hPa 0,0 l/m 0 min 0 min 0 W/m 19,3 km/h (3 Bft) 100,00 %
12.03.2022 22:02 10,5 C 10,0 C 6,1 C 64 % 1017,0 hPa 0,0 l/m 0 min 0 min 0 W/m 22,5 km/h (4 Bft) 100,00 %
12.03.2022 22:04 10,5 C 9,4 C 6,1 C 64 % 1017,0 hPa 0,0 l/m 0 min 0 min 0 W/m 19,3 km/h (3 Bft) 100,00 %
12.03.2022 22:06 10,5 C 9,4 C 6,1 C 64 % 1017,0 hPa 0,0 l/m 0 min 0 min 0 W/m 19,3 km/h (3 Bft) 100,00 %
12.03.2022 22:08 10,5 C 9,4 C 6,1 C 64 % 1017,0 hPa 0,0 l/m 0 min 0 min 0 W/m 22,5 km/h (4 Bft) 100,00 %
12.03.2022 22:10 10,5 C 9,4 C 6,1 C 64 % 1017,0 hPa 0,0 l/m 0 min 0 min 0 W/m 19,3 km/h (3 Bft) 100,00 %
12.03.2022 22:12 10,4 C 9,4 C 6,1 C 64 % 1017,0 hPa 0,0 l/m 0 min 0 min 0 W/m 19,3 km/h (3 Bft) 100,00 %
12.03.2022 22:14 10,4 C 9,4 C 5,6 C 64 % 1017,0 hPa 0,0 l/m 0 min 0 min 0 W/m 19,3 km/h (3 Bft) 100,00 %
12.03.2022 22:16 10,4 C 9,4 C 5,6 C 64 % 1017,0 hPa 0,0 l/m 0 min 0 min 0 W/m 19,3 km/h (3 Bft) 100,00 %
12.03.2022 22:18 10,4 C 9,4 C 5,6 C 64 % 1016,8 hPa 0,0 l/m 0 min 0 min 0 W/m 16,1 km/h (3 Bft) 100,00 %
12.03.2022 22:20 10,3 C 9,4 C 5,6 C 64 % 1016,8 hPa 0,0 l/m 0 min 0 min 0 W/m 19,3 km/h (3 Bft) 100,00 %
12.03.2022 22:22 10,3 C 9,4 C 5,6 C 64 % 1016,9 hPa 0,0 l/m 0 min 0 min 0 W/m 19,3 km/h (3 Bft) 100,00 %
12.03.2022 22:24 10,3 C 9,4 C 5,6 C 64 % 1016,9 hPa 0,0 l/m 0 min 0 min 0 W/m 16,1 km/h (3 Bft) 97,87 %
12.03.2022 22:26 10,3 C 9,4 C 5,6 C 64 % 1016,9 hPa 0,0 l/m 0 min 0 min 0 W/m 16,1 km/h (3 Bft) 100,00 %
12.03.2022 22:28 10,2 C 9,4 C 5,6 C 64 % 1016,9 hPa 0,0 l/m 0 min 0 min 0 W/m 16,1 km/h (3 Bft) 97,87 %
12.03.2022 22:30 10,2 C 8,9 C 5,6 C 65 % 1016,9 hPa 0,0 l/m 0 min 0 min 0 W/m 16,1 km/h (3 Bft) 100,00 %
12.03.2022 22:32 10,2 C 8,9 C 5,6 C 65 % 1016,9 hPa 0,0 l/m 0 min 0 min 0 W/m 16,1 km/h (3 Bft) 97,87 %
12.03.2022 22:34 10,1 C 8,9 C 5,6 C 65 % 1016,9 hPa 0,0 l/m 0 min 0 min 0 W/m 19,3 km/h (3 Bft) 100,00 %
12.03.2022 22:36 10,1 C 8,9 C 5,6 C 66 % 1017,0 hPa 0,0 l/m 0 min 0 min 0 W/m 19,3 km/h (3 Bft) 95,74 %
12.03.2022 22:38 10,1 C 8,9 C 5,6 C 66 % 1017,0 hPa 0,0 l/m 0 min 0 min 0 W/m 16,1 km/h (3 Bft) 100,00 %
12.03.2022 22:40 10,0 C 8,9 C 5,6 C 66 % 1017,0 hPa 0,0 l/m 0 min 0 min 0 W/m 16,1 km/h (3 Bft) 100,00 %
12.03.2022 22:42 10,0 C 8,9 C 5,6 C 66 % 1016,9 hPa 0,0 l/m 0 min 0 min 0 W/m 16,1 km/h (3 Bft) 100,00 %
12.03.2022 22:44 10,0 C 8,9 C 5,6 C 66 % 1017,0 hPa 0,0 l/m 0 min 0 min 0 W/m 19,3 km/h (3 Bft) 100,00 %
12.03.2022 22:46 9,9 C 8,9 C 5,6 C 66 % 1017,0 hPa 0,0 l/m 0 min 0 min 0 W/m 16,1 km/h (3 Bft) 100,00 %
12.03.2022 22:48 9,9 C 8,9 C 5,6 C 66 % 1017,0 hPa 0,0 l/m 0 min 0 min 0 W/m 16,1 km/h (3 Bft) 100,00 %
12.03.2022 22:50 9,9 C 8,9 C 5,0 C 66 % 1017,0 hPa 0,0 l/m 0 min 0 min 0 W/m 16,1 km/h (3 Bft) 100,00 %
12.03.2022 22:52 9,8 C 8,9 C 5,0 C 66 % 1016,9 hPa 0,0 l/m 0 min 0 min 0 W/m 22,5 km/h (4 Bft) 100,00 %
12.03.2022 22:54 9,8 C 8,9 C 5,0 C 67 % 1016,9 hPa 0,0 l/m 0 min 0 min 0 W/m 16,1 km/h (3 Bft) 100,00 %
12.03.2022 22:56 9,8 C 8,9 C 5,0 C 67 % 1016,9 hPa 0,0 l/m 0 min 0 min 0 W/m 16,1 km/h (3 Bft) 100,00 %
12.03.2022 22:58 9,8 C 8,9 C 5,0 C 67 % 1016,9 hPa 0,0 l/m 0 min 0 min 0 W/m 12,9 km/h (3 Bft) 97,87 %
12.03.2022 23:00 9,7 C 8,9 C 5,0 C 67 % 1016,9 hPa 0,0 l/m 0 min 0 min 0 W/m 16,1 km/h (3 Bft) 97,87 %
12.03.2022 23:02 9,7 C 8,3 C 5,0 C 67 % 1016,9 hPa 0,0 l/m 0 min 0 min 0 W/m 12,9 km/h (3 Bft) 95,74 %
12.03.2022 23:04 9,7 C 8,3 C 5,0 C 67 % 1016,9 hPa 0,0 l/m 0 min 0 min 0 W/m 12,9 km/h (3 Bft) 100,00 %
12.03.2022 23:06 9,6 C 8,3 C 5,0 C 67 % 1016,9 hPa 0,0 l/m 0 min 0 min 0 W/m 16,1 km/h (3 Bft) 100,00 %
12.03.2022 23:08 9,6 C 8,3 C 5,0 C 67 % 1016,8 hPa 0,0 l/m 0 min 0 min 0 W/m 12,9 km/h (3 Bft) 95,74 %
12.03.2022 23:10 9,6 C 8,3 C 5,0 C 68 % 1016,8 hPa 0,0 l/m 0 min 0 min 0 W/m 12,9 km/h (3 Bft) 95,74 %
12.03.2022 23:12 9,5 C 8,3 C 5,0 C 68 % 1016,8 hPa 0,0 l/m 0 min 0 min 0 W/m 12,9 km/h (3 Bft) 95,74 %
12.03.2022 23:14 9,4 C 8,3 C 5,0 C 68 % 1016,8 hPa 0,0 l/m 0 min 0 min 0 W/m 9,7 km/h (2 Bft) 95,74 %
12.03.2022 23:16 9,4 C 8,3 C 5,0 C 68 % 1016,8 hPa 0,0 l/m 0 min 0 min 0 W/m 12,9 km/h (3 Bft) 95,65 %
12.03.2022 23:18 9,4 C 8,3 C 4,4 C 68 % 1016,8 hPa 0,0 l/m 0 min 0 min 0 W/m 12,9 km/h (3 Bft) 95,74 %
12.03.2022 23:20 9,3 C 8,3 C 4,4 C 68 % 1016,8 hPa 0,0 l/m 0 min 0 min 0 W/m 12,9 km/h (3 Bft) 93,62 %
12.03.2022 23:22 9,3 C 8,3 C 4,4 C 68 % 1016,8 hPa 0,0 l/m 0 min 0 min 0 W/m 16,1 km/h (3 Bft) 95,74 %
12.03.2022 23:24 9,2 C 8,3 C 4,4 C 69 % 1016,8 hPa 0,0 l/m 0 min 0 min 0 W/m 12,9 km/h (3 Bft) 95,74 %
12.03.2022 23:26 9,2 C 8,3 C 4,4 C 69 % 1016,7 hPa 0,0 l/m 0 min 0 min 0 W/m 16,1 km/h (3 Bft) 95,74 %
12.03.2022 23:28 9,2 C 7,8 C 4,4 C 69 % 1016,8 hPa 0,0 l/m 0 min 0 min 0 W/m 12,9 km/h (3 Bft) 95,65 %
12.03.2022 23:30 9,1 C 7,8 C 4,4 C 69 % 1016,7 hPa 0,0 l/m 0 min 0 min 0 W/m 12,9 km/h (3 Bft) 95,74 %
12.03.2022 23:32 9,1 C 7,8 C 4,4 C 69 % 1016,8 hPa 0,0 l/m 0 min 0 min 0 W/m 12,9 km/h (3 Bft) 95,74 %
12.03.2022 23:34 9,1 C 7,8 C 4,4 C 69 % 1016,7 hPa 0,0 l/m 0 min 0 min 0 W/m 12,9 km/h (3 Bft) 95,74 %
12.03.2022 23:36 9,1 C 7,8 C 4,4 C 69 % 1016,7 hPa 0,0 l/m 0 min 0 min 0 W/m 12,9 km/h (3 Bft) 95,74 %
12.03.2022 23:38 9,0 C 7,8 C 4,4 C 69 % 1016,7 hPa 0,0 l/m 0 min 0 min 0 W/m 19,3 km/h (3 Bft) 95,74 %
12.03.2022 23:40 9,0 C 7,8 C 4,4 C 70 % 1016,7 hPa 0,0 l/m 0 min 0 min 0 W/m 16,1 km/h (3 Bft) 100,00 %
12.03.2022 23:42 8,9 C 7,8 C 4,4 C 70 % 1016,8 hPa 0,0 l/m 0 min 0 min 0 W/m 12,9 km/h (3 Bft) 95,74 %
12.03.2022 23:44 8,9 C 7,8 C 4,4 C 70 % 1016,7 hPa 0,0 l/m 0 min 0 min 0 W/m 12,9 km/h (3 Bft) 97,87 %
12.03.2022 23:46 8,9 C 7,8 C 4,4 C 70 % 1016,7 hPa 0,0 l/m 0 min 0 min 0 W/m 12,9 km/h (3 Bft) 95,74 %
12.03.2022 23:48 8,9 C 7,8 C 4,4 C 70 % 1016,7 hPa 0,0 l/m 0 min 0 min 0 W/m 12,9 km/h (3 Bft) 97,87 %
12.03.2022 23:50 8,8 C 7,8 C 4,4 C 70 % 1016,7 hPa 0,0 l/m 0 min 0 min 0 W/m 16,1 km/h (3 Bft) 95,65 %
12.03.2022 23:52 8,8 C 8,3 C 4,4 C 70 % 1016,7 hPa 0,0 l/m 0 min 0 min 0 W/m 16,1 km/h (3 Bft) 95,74 %
12.03.2022 23:54 8,8 C 8,3 C 4,4 C 70 % 1016,7 hPa 0,0 l/m 0 min 0 min 0 W/m 16,1 km/h (3 Bft) 97,87 %
12.03.2022 23:56 8,8 C 8,3 C 4,4 C 70 % 1016,7 hPa 0,0 l/m 0 min 0 min 0 W/m 19,3 km/h (3 Bft) 95,74 %
12.03.2022 23:58 8,9 C 8,3 C 4,4 C 70 % 1016,8 hPa 0,0 l/m 0 min 0 min 0 W/m 19,3 km/h (3 Bft) 97,87 %
_ Min-Zeit 07:02 06:34 06:54 00:26 00:24 - - - - 20:16 09:26
Minimum _ 7,0 C 6,1 C 2,2 C 41 % 1015,0 hPa - - - - 0,0 km/h (0 Bft) 50,00 %
_ Max-Zeit 15:08 11:32 11:30 10:42 10:12 00:00 12:08 03:28 13:08 01:52 00:00
Maximum _ 15,6 C 19,4 C 15,6 C 70 % 1018,4 hPa 0,0 l/m 4 min 2 min 707 W/m 38,6 km/h
SW (5 Bft)
100,00 %
Durchschnitt _ 11,2 C 11,1 C 7,0 C 58 % 1016,9 hPa #0,0 l/m #6:38 h #14 min. 244 W/m 18,5 km/h (3 Bft) 97,33 %
© 2022 W. Hausmann